<?xml version='1.0' encoding='UTF-8'?>
<gpx version="1.1" creator="https://www.komoot.de" xmlns="http://www.topografix.com/GPX/1/1" xmlns:xsi="http://www.w3.org/2001/XMLSchema-instance" xsi:schemaLocation="http://www.topografix.com/GPX/1/1 http://www.topografix.com/GPX/1/1/gpx.xsd">
  <metadata>
    <name>CX.DBC.56.Klinker-gravel classic 2026 kort v1</name>
    <author>
      <link href="https://www.komoot.de">
        <text>komoot</text>
        <type>text/html</type>
      </link>
    </author>
  </metadata>
  <wpt lat="52.213687" lon="5.547868">
    <name>Uitzicht over de heide</name>
    <sym>Flag, Blue</sym>
  </wpt>
  <wpt lat="52.207626" lon="5.553957">
    <name>Veldhoefweg onverhard (gravel)</name>
    <sym>Flag, Blue</sym>
  </wpt>
  <wpt lat="52.237413" lon="5.626662">
    <name>Oude Garderenseweg Gravelpad</name>
    <sym>Flag, Blue</sym>
  </wpt>
  <wpt lat="52.253999" lon="5.663162">
    <name>Zandig pad door het bos bij het Solse Gat</name>
    <sym>Flag, Blue</sym>
  </wpt>
  <wpt lat="52.268332" lon="5.704363">
    <name>Snackbar 't Speuldje</name>
    <sym>Restaurant</sym>
  </wpt>
  <wpt lat="52.270172" lon="5.704025">
    <name>Strade Bianche Tonnenberg</name>
    <sym>Flag, Blue</sym>
  </wpt>
  <wpt lat="52.284485" lon="5.689939">
    <name>Romeins Marskamp Ermelo</name>
    <sym>Flag, Blue</sym>
  </wpt>
  <wpt lat="52.290755" lon="5.671108">
    <name>Ermelose Heide</name>
    <sym>Flag, Blue</sym>
  </wpt>
  <wpt lat="52.285538" lon="5.629399">
    <name>Rechte gravelstrook in de Veluwe</name>
    <sym>Flag, Blue</sym>
  </wpt>
  <wpt lat="52.281952" lon="5.597967">
    <name>Onverhard fietspad tussen spoor en hei</name>
    <sym>Flag, Blue</sym>
  </wpt>
  <wpt lat="52.266718" lon="5.601952">
    <name>Kerkepad</name>
    <sym>Flag, Blue</sym>
  </wpt>
  <wpt lat="52.254997" lon="5.556350">
    <name>Hoeverveldweg grindstrook</name>
    <sym>Flag, Blue</sym>
  </wpt>
  <wpt lat="52.250929" lon="5.522605">
    <name>Gravelpad Oldenallerallee en Leembruggerweg</name>
    <sym>Flag, Blue</sym>
  </wpt>
  <wpt lat="52.221891" lon="5.503869">
    <name>Luxoolseweg Gravelpad</name>
    <sym>Flag, Blue</sym>
  </wpt>
  <trk>
    <name>CX.DBC.56.Klinker-gravel classic 2026 kort v1</name>
    <type>mtb_easy</type>
    <trkseg>
      <trkpt lat="52.222227" lon="5.501079">
        <ele>2.575051</ele>
        <time>2026-08-25T17:15:32.070Z</time>
      </trkpt>
      <trkpt lat="52.222197" lon="5.500985">
        <ele>2.575051</ele>
        <time>2026-08-25T17:15:33.189Z</time>
      </trkpt>
      <trkpt lat="52.222071" lon="5.500700">
        <ele>2.575051</ele>
        <time>2026-08-25T17:15:36.927Z</time>
      </trkpt>
      <trkpt lat="52.221305" lon="5.499645">
        <ele>2.643668</ele>
        <time>2026-08-25T17:15:54.392Z</time>
      </trkpt>
      <trkpt lat="52.220717" lon="5.498757">
        <ele>2.787126</ele>
        <time>2026-08-25T17:16:08.920Z</time>
      </trkpt>
      <trkpt lat="52.220591" lon="5.499039">
        <ele>2.825420</ele>
        <time>2026-08-25T17:16:12.843Z</time>
      </trkpt>
      <trkpt lat="52.220176" lon="5.499968">
        <ele>2.880949</ele>
        <time>2026-08-25T17:16:25.320Z</time>
      </trkpt>
      <trkpt lat="52.220021" lon="5.500117">
        <ele>2.871346</ele>
        <time>2026-08-25T17:16:28.867Z</time>
      </trkpt>
      <trkpt lat="52.219936" lon="5.500249">
        <ele>2.865083</ele>
        <time>2026-08-25T17:16:31.179Z</time>
      </trkpt>
      <trkpt lat="52.219752" lon="5.500867">
        <ele>2.842609</ele>
        <time>2026-08-25T17:16:39.475Z</time>
      </trkpt>
      <trkpt lat="52.219575" lon="5.501181">
        <ele>2.828653</ele>
        <time>2026-08-25T17:16:44.574Z</time>
      </trkpt>
      <trkpt lat="52.219631" lon="5.501319">
        <ele>2.823239</ele>
        <time>2026-08-25T17:16:46.532Z</time>
      </trkpt>
      <trkpt lat="52.219663" lon="5.501466">
        <ele>2.818137</ele>
        <time>2026-08-25T17:16:48.127Z</time>
      </trkpt>
      <trkpt lat="52.219688" lon="5.502003">
        <ele>2.802167</ele>
        <time>2026-08-25T17:16:53.584Z</time>
      </trkpt>
      <trkpt lat="52.219681" lon="5.502473">
        <ele>2.827678</ele>
        <time>2026-08-25T17:16:58.402Z</time>
      </trkpt>
      <trkpt lat="52.219407" lon="5.503662">
        <ele>2.896608</ele>
        <time>2026-08-25T17:17:16.795Z</time>
      </trkpt>
      <trkpt lat="52.218610" lon="5.507110">
        <ele>3.249033</ele>
        <time>2026-08-25T17:18:11.149Z</time>
      </trkpt>
      <trkpt lat="52.217846" lon="5.509433">
        <ele>3.399637</ele>
        <time>2026-08-25T17:18:48.894Z</time>
      </trkpt>
      <trkpt lat="52.217760" lon="5.509854">
        <ele>3.420018</ele>
        <time>2026-08-25T17:18:55.312Z</time>
      </trkpt>
      <trkpt lat="52.217785" lon="5.510390">
        <ele>3.464811</ele>
        <time>2026-08-25T17:19:03.143Z</time>
      </trkpt>
      <trkpt lat="52.218230" lon="5.513740">
        <ele>3.955622</ele>
        <time>2026-08-25T17:19:53.914Z</time>
      </trkpt>
      <trkpt lat="52.218280" lon="5.514990">
        <ele>4.217715</ele>
        <time>2026-08-25T17:20:12.969Z</time>
      </trkpt>
      <trkpt lat="52.218270" lon="5.515700">
        <ele>4.366308</ele>
        <time>2026-08-25T17:20:23.904Z</time>
      </trkpt>
      <trkpt lat="52.218190" lon="5.516390">
        <ele>4.452276</ele>
        <time>2026-08-25T17:20:34.572Z</time>
      </trkpt>
      <trkpt lat="52.218130" lon="5.516700">
        <ele>4.478686</ele>
        <time>2026-08-25T17:20:39.423Z</time>
      </trkpt>
      <trkpt lat="52.217970" lon="5.517300">
        <ele>4.531846</ele>
        <time>2026-08-25T17:20:49.040Z</time>
      </trkpt>
      <trkpt lat="52.217800" lon="5.517810">
        <ele>4.579012</ele>
        <time>2026-08-25T17:20:57.411Z</time>
      </trkpt>
      <trkpt lat="52.217775" lon="5.518004">
        <ele>4.595117</ele>
        <time>2026-08-25T17:21:00.238Z</time>
      </trkpt>
      <trkpt lat="52.217770" lon="5.518040">
        <ele>4.598116</ele>
        <time>2026-08-25T17:21:00.761Z</time>
      </trkpt>
      <trkpt lat="52.217770" lon="5.518200">
        <ele>4.611114</ele>
        <time>2026-08-25T17:21:03.028Z</time>
      </trkpt>
      <trkpt lat="52.217861" lon="5.518457">
        <ele>4.635228</ele>
        <time>2026-08-25T17:21:07.202Z</time>
      </trkpt>
      <trkpt lat="52.217981" lon="5.518957">
        <ele>4.646347</ele>
        <time>2026-08-25T17:21:14.718Z</time>
      </trkpt>
      <trkpt lat="52.218011" lon="5.519327">
        <ele>4.639856</ele>
        <time>2026-08-25T17:21:19.911Z</time>
      </trkpt>
      <trkpt lat="52.217949" lon="5.519597">
        <ele>4.634840</ele>
        <time>2026-08-25T17:21:23.943Z</time>
      </trkpt>
      <trkpt lat="52.217074" lon="5.522545">
        <ele>4.832089</ele>
        <time>2026-08-25T17:22:10.461Z</time>
      </trkpt>
      <trkpt lat="52.216146" lon="5.525652">
        <ele>5.847012</ele>
        <time>2026-08-25T17:23:04.609Z</time>
      </trkpt>
      <trkpt lat="52.216170" lon="5.526060">
        <ele>6.009990</ele>
        <time>2026-08-25T17:23:11.428Z</time>
      </trkpt>
      <trkpt lat="52.216710" lon="5.527870">
        <ele>6.689147</ele>
        <time>2026-08-25T17:23:44.763Z</time>
      </trkpt>
      <trkpt lat="52.216780" lon="5.528240">
        <ele>6.808038</ele>
        <time>2026-08-25T17:23:50.824Z</time>
      </trkpt>
      <trkpt lat="52.216882" lon="5.529061">
        <ele>7.065233</ele>
        <time>2026-08-25T17:24:03.408Z</time>
      </trkpt>
      <trkpt lat="52.217490" lon="5.534606">
        <ele>6.645061</ele>
        <time>2026-08-25T17:25:21.449Z</time>
      </trkpt>
      <trkpt lat="52.217711" lon="5.536707">
        <ele>6.806374</ele>
        <time>2026-08-25T17:25:51.478Z</time>
      </trkpt>
      <trkpt lat="52.218046" lon="5.540508">
        <ele>7.736114</ele>
        <time>2026-08-25T17:26:52.167Z</time>
      </trkpt>
      <trkpt lat="52.216216" lon="5.540744">
        <ele>8.068607</ele>
        <time>2026-08-25T17:27:29.716Z</time>
      </trkpt>
      <trkpt lat="52.213304" lon="5.541120">
        <ele>8.239710</ele>
        <time>2026-08-25T17:28:27.911Z</time>
      </trkpt>
      <trkpt lat="52.213453" lon="5.543776">
        <ele>8.411948</ele>
        <time>2026-08-25T17:29:29.286Z</time>
      </trkpt>
      <trkpt lat="52.213637" lon="5.547025">
        <ele>8.675005</ele>
        <time>2026-08-25T17:30:45.076Z</time>
      </trkpt>
      <trkpt lat="52.213680" lon="5.547869">
        <ele>8.738190</ele>
        <time>2026-08-25T17:30:55.190Z</time>
      </trkpt>
      <trkpt lat="52.213937" lon="5.552870">
        <ele>8.865367</ele>
        <time>2026-08-25T17:31:54.332Z</time>
      </trkpt>
      <trkpt lat="52.213658" lon="5.552820">
        <ele>8.886216</ele>
        <time>2026-08-25T17:32:00.945Z</time>
      </trkpt>
      <trkpt lat="52.212190" lon="5.553110">
        <ele>9.224849</ele>
        <time>2026-08-25T17:32:36.569Z</time>
      </trkpt>
      <trkpt lat="52.211269" lon="5.553240">
        <ele>9.545082</ele>
        <time>2026-08-25T17:33:00.038Z</time>
      </trkpt>
      <trkpt lat="52.210725" lon="5.553317">
        <ele>9.591062</ele>
        <time>2026-08-25T17:33:13.793Z</time>
      </trkpt>
      <trkpt lat="52.207588" lon="5.553697">
        <ele>9.543245</ele>
        <time>2026-08-25T17:34:25.761Z</time>
      </trkpt>
      <trkpt lat="52.207602" lon="5.553960">
        <ele>9.558672</ele>
        <time>2026-08-25T17:34:28.849Z</time>
      </trkpt>
      <trkpt lat="52.208573" lon="5.571478">
        <ele>10.684106</ele>
        <time>2026-08-25T17:38:00.324Z</time>
      </trkpt>
      <trkpt lat="52.208750" lon="5.574914">
        <ele>11.465233</ele>
        <time>2026-08-25T17:38:44.316Z</time>
      </trkpt>
      <trkpt lat="52.208871" lon="5.576841">
        <ele>12.051189</ele>
        <time>2026-08-25T17:39:09.925Z</time>
      </trkpt>
      <trkpt lat="52.208891" lon="5.577228">
        <ele>12.152337</ele>
        <time>2026-08-25T17:39:15.236Z</time>
      </trkpt>
      <trkpt lat="52.208978" lon="5.578909">
        <ele>12.550317</ele>
        <time>2026-08-25T17:39:37.717Z</time>
      </trkpt>
      <trkpt lat="52.209252" lon="5.583596">
        <ele>12.735364</ele>
        <time>2026-08-25T17:40:33.055Z</time>
      </trkpt>
      <trkpt lat="52.209608" lon="5.590451">
        <ele>12.439997</ele>
        <time>2026-08-25T17:41:52.256Z</time>
      </trkpt>
      <trkpt lat="52.210369" lon="5.590573">
        <ele>12.509800</ele>
        <time>2026-08-25T17:42:08.306Z</time>
      </trkpt>
      <trkpt lat="52.210628" lon="5.590615">
        <ele>12.577733</ele>
        <time>2026-08-25T17:42:13.786Z</time>
      </trkpt>
      <trkpt lat="52.210931" lon="5.590756">
        <ele>12.659968</ele>
        <time>2026-08-25T17:42:20.378Z</time>
      </trkpt>
      <trkpt lat="52.211675" lon="5.591395">
        <ele>12.879403</ele>
        <time>2026-08-25T17:42:37.084Z</time>
      </trkpt>
      <trkpt lat="52.211971" lon="5.591473">
        <ele>12.957660</ele>
        <time>2026-08-25T17:42:43.065Z</time>
      </trkpt>
      <trkpt lat="52.213857" lon="5.591781">
        <ele>13.378933</ele>
        <time>2026-08-25T17:43:21.789Z</time>
      </trkpt>
      <trkpt lat="52.213948" lon="5.591795">
        <ele>13.362777</ele>
        <time>2026-08-25T17:43:23.556Z</time>
      </trkpt>
      <trkpt lat="52.213988" lon="5.591840">
        <ele>13.354189</ele>
        <time>2026-08-25T17:43:24.469Z</time>
      </trkpt>
      <trkpt lat="52.214426" lon="5.591984">
        <ele>13.275215</ele>
        <time>2026-08-25T17:43:32.905Z</time>
      </trkpt>
      <trkpt lat="52.214606" lon="5.591615">
        <ele>13.224134</ele>
        <time>2026-08-25T17:43:38.250Z</time>
      </trkpt>
      <trkpt lat="52.215011" lon="5.590074">
        <ele>13.011491</ele>
        <time>2026-08-25T17:43:56.974Z</time>
      </trkpt>
      <trkpt lat="52.216700" lon="5.582664">
        <ele>11.353393</ele>
        <time>2026-08-25T17:45:25.252Z</time>
      </trkpt>
      <trkpt lat="52.217008" lon="5.581132">
        <ele>11.043523</ele>
        <time>2026-08-25T17:45:43.720Z</time>
      </trkpt>
      <trkpt lat="52.217112" lon="5.580286">
        <ele>10.877603</ele>
        <time>2026-08-25T17:45:53.480Z</time>
      </trkpt>
      <trkpt lat="52.217472" lon="5.576350">
        <ele>9.921733</ele>
        <time>2026-08-25T17:46:37.077Z</time>
      </trkpt>
      <trkpt lat="52.217517" lon="5.575853">
        <ele>9.937809</ele>
        <time>2026-08-25T17:46:42.907Z</time>
      </trkpt>
      <trkpt lat="52.217569" lon="5.575553">
        <ele>9.953943</ele>
        <time>2026-08-25T17:46:46.628Z</time>
      </trkpt>
      <trkpt lat="52.217590" lon="5.575649">
        <ele>9.959217</ele>
        <time>2026-08-25T17:46:47.913Z</time>
      </trkpt>
      <trkpt lat="52.218119" lon="5.576911">
        <ele>10.038342</ele>
        <time>2026-08-25T17:47:07.498Z</time>
      </trkpt>
      <trkpt lat="52.218236" lon="5.577104">
        <ele>10.052391</ele>
        <time>2026-08-25T17:47:11.065Z</time>
      </trkpt>
      <trkpt lat="52.219354" lon="5.578464">
        <ele>10.222822</ele>
        <time>2026-08-25T17:47:39.599Z</time>
      </trkpt>
      <trkpt lat="52.220933" lon="5.580024">
        <ele>10.310597</ele>
        <time>2026-08-25T17:48:17.404Z</time>
      </trkpt>
      <trkpt lat="52.221018" lon="5.580098">
        <ele>10.311864</ele>
        <time>2026-08-25T17:48:19.294Z</time>
      </trkpt>
      <trkpt lat="52.222197" lon="5.581220">
        <ele>10.075153</ele>
        <time>2026-08-25T17:48:44.994Z</time>
      </trkpt>
      <trkpt lat="52.222773" lon="5.581803">
        <ele>9.902385</ele>
        <time>2026-08-25T17:48:57.970Z</time>
      </trkpt>
      <trkpt lat="52.223108" lon="5.582218">
        <ele>9.859187</ele>
        <time>2026-08-25T17:49:06.294Z</time>
      </trkpt>
      <trkpt lat="52.223655" lon="5.583103">
        <ele>9.860347</ele>
        <time>2026-08-25T17:49:21.876Z</time>
      </trkpt>
      <trkpt lat="52.223771" lon="5.583243">
        <ele>9.860565</ele>
        <time>2026-08-25T17:49:24.820Z</time>
      </trkpt>
      <trkpt lat="52.225320" lon="5.584476">
        <ele>9.861381</ele>
        <time>2026-08-25T17:49:58.872Z</time>
      </trkpt>
      <trkpt lat="52.225654" lon="5.584627">
        <ele>9.861336</ele>
        <time>2026-08-25T17:50:05.881Z</time>
      </trkpt>
      <trkpt lat="52.225983" lon="5.584776">
        <ele>9.861293</ele>
        <time>2026-08-25T17:50:12.816Z</time>
      </trkpt>
      <trkpt lat="52.226026" lon="5.584830">
        <ele>9.862302</ele>
        <time>2026-08-25T17:50:13.885Z</time>
      </trkpt>
      <trkpt lat="52.226706" lon="5.585098">
        <ele>9.884220</ele>
        <time>2026-08-25T17:50:25.907Z</time>
      </trkpt>
      <trkpt lat="52.227850" lon="5.585821">
        <ele>9.959520</ele>
        <time>2026-08-25T17:50:46.964Z</time>
      </trkpt>
      <trkpt lat="52.227946" lon="5.585935">
        <ele>9.990603</ele>
        <time>2026-08-25T17:50:49.005Z</time>
      </trkpt>
      <trkpt lat="52.228435" lon="5.586523">
        <ele>10.149624</ele>
        <time>2026-08-25T17:50:59.781Z</time>
      </trkpt>
      <trkpt lat="52.229033" lon="5.587333">
        <ele>10.353079</ele>
        <time>2026-08-25T17:51:14.526Z</time>
      </trkpt>
      <trkpt lat="52.229203" lon="5.587510">
        <ele>10.403298</ele>
        <time>2026-08-25T17:51:18.453Z</time>
      </trkpt>
      <trkpt lat="52.229329" lon="5.587559">
        <ele>10.432155</ele>
        <time>2026-08-25T17:51:20.971Z</time>
      </trkpt>
      <trkpt lat="52.229160" lon="5.588720">
        <ele>10.594999</ele>
        <time>2026-08-25T17:51:39.193Z</time>
      </trkpt>
      <trkpt lat="52.229027" lon="5.589253">
        <ele>10.673537</ele>
        <time>2026-08-25T17:51:47.740Z</time>
      </trkpt>
      <trkpt lat="52.228846" lon="5.591163">
        <ele>10.650089</ele>
        <time>2026-08-25T17:52:14.635Z</time>
      </trkpt>
      <trkpt lat="52.228836" lon="5.591505">
        <ele>10.606118</ele>
        <time>2026-08-25T17:52:19.252Z</time>
      </trkpt>
      <trkpt lat="52.228896" lon="5.592947">
        <ele>10.420504</ele>
        <time>2026-08-25T17:52:39.080Z</time>
      </trkpt>
      <trkpt lat="52.228989" lon="5.595762">
        <ele>10.657788</ele>
        <time>2026-08-25T17:53:20.437Z</time>
      </trkpt>
      <trkpt lat="52.228897" lon="5.596616">
        <ele>10.825146</ele>
        <time>2026-08-25T17:53:33.267Z</time>
      </trkpt>
      <trkpt lat="52.228685" lon="5.598563">
        <ele>11.261390</ele>
        <time>2026-08-25T17:54:03.245Z</time>
      </trkpt>
      <trkpt lat="52.228905" lon="5.598764">
        <ele>11.353674</ele>
        <time>2026-08-25T17:54:08.222Z</time>
      </trkpt>
      <trkpt lat="52.229300" lon="5.599125">
        <ele>11.524689</ele>
        <time>2026-08-25T17:54:17.176Z</time>
      </trkpt>
      <trkpt lat="52.229842" lon="5.599884">
        <ele>11.794451</ele>
        <time>2026-08-25T17:54:30.963Z</time>
      </trkpt>
      <trkpt lat="52.230063" lon="5.600144">
        <ele>11.897359</ele>
        <time>2026-08-25T17:54:35.938Z</time>
      </trkpt>
      <trkpt lat="52.230275" lon="5.600236">
        <ele>11.980230</ele>
        <time>2026-08-25T17:54:39.805Z</time>
      </trkpt>
      <trkpt lat="52.231588" lon="5.600184">
        <ele>12.030637</ele>
        <time>2026-08-25T17:55:01.803Z</time>
      </trkpt>
      <trkpt lat="52.231828" lon="5.600174">
        <ele>12.036234</ele>
        <time>2026-08-25T17:55:05.940Z</time>
      </trkpt>
      <trkpt lat="52.232062" lon="5.600170">
        <ele>12.041690</ele>
        <time>2026-08-25T17:55:10.126Z</time>
      </trkpt>
      <trkpt lat="52.232262" lon="5.600164">
        <ele>12.110112</ele>
        <time>2026-08-25T17:55:13.844Z</time>
      </trkpt>
      <trkpt lat="52.232590" lon="5.600148">
        <ele>12.275007</ele>
        <time>2026-08-25T17:55:20.125Z</time>
      </trkpt>
      <trkpt lat="52.232672" lon="5.600144">
        <ele>12.316231</ele>
        <time>2026-08-25T17:55:21.735Z</time>
      </trkpt>
      <trkpt lat="52.233293" lon="5.600115">
        <ele>12.628414</ele>
        <time>2026-08-25T17:55:34.261Z</time>
      </trkpt>
      <trkpt lat="52.233526" lon="5.600205">
        <ele>12.748729</ele>
        <time>2026-08-25T17:55:39.078Z</time>
      </trkpt>
      <trkpt lat="52.233604" lon="5.600361">
        <ele>12.810707</ele>
        <time>2026-08-25T17:55:41.553Z</time>
      </trkpt>
      <trkpt lat="52.233754" lon="5.601009">
        <ele>12.960980</ele>
        <time>2026-08-25T17:55:49.815Z</time>
      </trkpt>
      <trkpt lat="52.234115" lon="5.601031">
        <ele>12.993830</ele>
        <time>2026-08-25T17:55:56.382Z</time>
      </trkpt>
      <trkpt lat="52.235120" lon="5.601075">
        <ele>13.085251</ele>
        <time>2026-08-25T17:56:13.454Z</time>
      </trkpt>
      <trkpt lat="52.235154" lon="5.601065">
        <ele>13.088392</ele>
        <time>2026-08-25T17:56:14.029Z</time>
      </trkpt>
      <trkpt lat="52.235320" lon="5.600990">
        <ele>13.104054</ele>
        <time>2026-08-25T17:56:16.915Z</time>
      </trkpt>
      <trkpt lat="52.236290" lon="5.599580">
        <ele>13.174463</ele>
        <time>2026-08-25T17:56:39.344Z</time>
      </trkpt>
      <trkpt lat="52.236510" lon="5.599310">
        <ele>13.188788</ele>
        <time>2026-08-25T17:56:44.187Z</time>
      </trkpt>
      <trkpt lat="52.236780" lon="5.599030">
        <ele>13.208322</ele>
        <time>2026-08-25T17:56:49.811Z</time>
      </trkpt>
      <trkpt lat="52.237010" lon="5.598890">
        <ele>13.252288</ele>
        <time>2026-08-25T17:56:54.123Z</time>
      </trkpt>
      <trkpt lat="52.237190" lon="5.598880">
        <ele>13.284548</ele>
        <time>2026-08-25T17:56:57.287Z</time>
      </trkpt>
      <trkpt lat="52.237721" lon="5.599084">
        <ele>13.382255</ele>
        <time>2026-08-25T17:57:06.888Z</time>
      </trkpt>
      <trkpt lat="52.238273" lon="5.599296">
        <ele>13.483824</ele>
        <time>2026-08-25T17:57:16.999Z</time>
      </trkpt>
      <trkpt lat="52.238308" lon="5.600530">
        <ele>13.803684</ele>
        <time>2026-08-25T17:57:31.172Z</time>
      </trkpt>
      <trkpt lat="52.238290" lon="5.600835">
        <ele>13.903989</ele>
        <time>2026-08-25T17:57:34.838Z</time>
      </trkpt>
      <trkpt lat="52.238160" lon="5.601490">
        <ele>14.129385</ele>
        <time>2026-08-25T17:57:43.223Z</time>
      </trkpt>
      <trkpt lat="52.237790" lon="5.602690">
        <ele>14.571731</ele>
        <time>2026-08-25T17:57:59.882Z</time>
      </trkpt>
      <trkpt lat="52.237720" lon="5.603130">
        <ele>14.725196</ele>
        <time>2026-08-25T17:58:05.489Z</time>
      </trkpt>
      <trkpt lat="52.237700" lon="5.603600">
        <ele>14.884241</ele>
        <time>2026-08-25T17:58:11.244Z</time>
      </trkpt>
      <trkpt lat="52.237720" lon="5.603920">
        <ele>14.992828</ele>
        <time>2026-08-25T17:58:15.128Z</time>
      </trkpt>
      <trkpt lat="52.238126" lon="5.606886">
        <ele>15.843564</ele>
        <time>2026-08-25T17:58:50.539Z</time>
      </trkpt>
      <trkpt lat="52.238138" lon="5.606965">
        <ele>15.862115</ele>
        <time>2026-08-25T17:58:51.494Z</time>
      </trkpt>
      <trkpt lat="52.238277" lon="5.607865">
        <ele>16.073656</ele>
        <time>2026-08-25T17:59:02.424Z</time>
      </trkpt>
      <trkpt lat="52.238365" lon="5.608586">
        <ele>16.211368</ele>
        <time>2026-08-25T17:59:10.358Z</time>
      </trkpt>
      <trkpt lat="52.238389" lon="5.608785">
        <ele>16.242665</ele>
        <time>2026-08-25T17:59:12.443Z</time>
      </trkpt>
      <trkpt lat="52.238403" lon="5.608884">
        <ele>16.258343</ele>
        <time>2026-08-25T17:59:13.542Z</time>
      </trkpt>
      <trkpt lat="52.238316" lon="5.609304">
        <ele>16.326759</ele>
        <time>2026-08-25T17:59:18.379Z</time>
      </trkpt>
      <trkpt lat="52.238249" lon="5.609398">
        <ele>16.349016</ele>
        <time>2026-08-25T17:59:20.025Z</time>
      </trkpt>
      <trkpt lat="52.238174" lon="5.609436">
        <ele>16.368804</ele>
        <time>2026-08-25T17:59:21.517Z</time>
      </trkpt>
      <trkpt lat="52.238180" lon="5.609601">
        <ele>16.394309</ele>
        <time>2026-08-25T17:59:23.399Z</time>
      </trkpt>
      <trkpt lat="52.238184" lon="5.609746">
        <ele>16.416706</ele>
        <time>2026-08-25T17:59:25.077Z</time>
      </trkpt>
      <trkpt lat="52.238270" lon="5.609784">
        <ele>16.439156</ele>
        <time>2026-08-25T17:59:26.726Z</time>
      </trkpt>
      <trkpt lat="52.238326" lon="5.609917">
        <ele>16.464061</ele>
        <time>2026-08-25T17:59:28.537Z</time>
      </trkpt>
      <trkpt lat="52.238420" lon="5.610260">
        <ele>16.522046</ele>
        <time>2026-08-25T17:59:32.714Z</time>
      </trkpt>
      <trkpt lat="52.238371" lon="5.610959">
        <ele>16.651461</ele>
        <time>2026-08-25T17:59:40.359Z</time>
      </trkpt>
      <trkpt lat="52.238340" lon="5.611543">
        <ele>16.807883</ele>
        <time>2026-08-25T17:59:47.062Z</time>
      </trkpt>
      <trkpt lat="52.238293" lon="5.612340">
        <ele>17.021544</ele>
        <time>2026-08-25T17:59:56.901Z</time>
      </trkpt>
      <trkpt lat="52.238256" lon="5.612956">
        <ele>17.186710</ele>
        <time>2026-08-25T18:00:04.157Z</time>
      </trkpt>
      <trkpt lat="52.238147" lon="5.614897">
        <ele>17.720193</ele>
        <time>2026-08-25T18:00:26.631Z</time>
      </trkpt>
      <trkpt lat="52.238031" lon="5.616943">
        <ele>18.265667</ele>
        <time>2026-08-25T18:00:51.018Z</time>
      </trkpt>
      <trkpt lat="52.238028" lon="5.617005">
        <ele>18.277980</ele>
        <time>2026-08-25T18:00:51.773Z</time>
      </trkpt>
      <trkpt lat="52.237995" lon="5.617561">
        <ele>18.388577</ele>
        <time>2026-08-25T18:00:58.403Z</time>
      </trkpt>
      <trkpt lat="52.237938" lon="5.618293">
        <ele>18.534671</ele>
        <time>2026-08-25T18:01:06.754Z</time>
      </trkpt>
      <trkpt lat="52.237829" lon="5.619072">
        <ele>18.692878</ele>
        <time>2026-08-25T18:01:15.512Z</time>
      </trkpt>
      <trkpt lat="52.237771" lon="5.619484">
        <ele>18.776577</ele>
        <time>2026-08-25T18:01:20.127Z</time>
      </trkpt>
      <trkpt lat="52.237686" lon="5.619978">
        <ele>18.940595</ele>
        <time>2026-08-25T18:01:25.927Z</time>
      </trkpt>
      <trkpt lat="52.237554" lon="5.621018">
        <ele>19.289804</ele>
        <time>2026-08-25T18:01:38.458Z</time>
      </trkpt>
      <trkpt lat="52.237482" lon="5.621627">
        <ele>19.493735</ele>
        <time>2026-08-25T18:01:46.031Z</time>
      </trkpt>
      <trkpt lat="52.237474" lon="5.621703">
        <ele>19.519090</ele>
        <time>2026-08-25T18:01:47.010Z</time>
      </trkpt>
      <trkpt lat="52.237355" lon="5.622796">
        <ele>19.861872</ele>
        <time>2026-08-25T18:02:01.052Z</time>
      </trkpt>
      <trkpt lat="52.237379" lon="5.624457">
        <ele>20.318039</ele>
        <time>2026-08-25T18:02:20.549Z</time>
      </trkpt>
      <trkpt lat="52.237412" lon="5.626619">
        <ele>20.704716</ele>
        <time>2026-08-25T18:02:44.846Z</time>
      </trkpt>
      <trkpt lat="52.237427" lon="5.627170">
        <ele>20.768065</ele>
        <time>2026-08-25T18:02:57.443Z</time>
      </trkpt>
      <trkpt lat="52.237442" lon="5.627936">
        <ele>20.856090</ele>
        <time>2026-08-25T18:03:14.919Z</time>
      </trkpt>
      <trkpt lat="52.237453" lon="5.628720">
        <ele>21.004169</ele>
        <time>2026-08-25T18:03:32.835Z</time>
      </trkpt>
      <trkpt lat="52.237502" lon="5.631753">
        <ele>21.867537</ele>
        <time>2026-08-25T18:04:45.688Z</time>
      </trkpt>
      <trkpt lat="52.237541" lon="5.634273">
        <ele>23.042832</ele>
        <time>2026-08-25T18:05:49.291Z</time>
      </trkpt>
      <trkpt lat="52.237576" lon="5.635519">
        <ele>23.339445</ele>
        <time>2026-08-25T18:06:19.074Z</time>
      </trkpt>
      <trkpt lat="52.237610" lon="5.637963">
        <ele>23.984910</ele>
        <time>2026-08-25T18:07:15.836Z</time>
      </trkpt>
      <trkpt lat="52.237670" lon="5.639787">
        <ele>24.549813</ele>
        <time>2026-08-25T18:08:01.199Z</time>
      </trkpt>
      <trkpt lat="52.237781" lon="5.643034">
        <ele>25.477601</ele>
        <time>2026-08-25T18:09:19.003Z</time>
      </trkpt>
      <trkpt lat="52.237794" lon="5.644486">
        <ele>25.878180</ele>
        <time>2026-08-25T18:09:53.207Z</time>
      </trkpt>
      <trkpt lat="52.237619" lon="5.646743">
        <ele>26.266173</ele>
        <time>2026-08-25T18:10:48.272Z</time>
      </trkpt>
      <trkpt lat="52.237520" lon="5.647544">
        <ele>26.272101</ele>
        <time>2026-08-25T18:11:06.604Z</time>
      </trkpt>
      <trkpt lat="52.237513" lon="5.647592">
        <ele>26.272459</ele>
        <time>2026-08-25T18:11:07.697Z</time>
      </trkpt>
      <trkpt lat="52.237491" lon="5.648124">
        <ele>26.276328</ele>
        <time>2026-08-25T18:11:19.389Z</time>
      </trkpt>
      <trkpt lat="52.237499" lon="5.649369">
        <ele>26.561937</ele>
        <time>2026-08-25T18:11:46.947Z</time>
      </trkpt>
      <trkpt lat="52.237479" lon="5.649564">
        <ele>26.654567</ele>
        <time>2026-08-25T18:11:51.482Z</time>
      </trkpt>
      <trkpt lat="52.237204" lon="5.651087">
        <ele>27.398464</ele>
        <time>2026-08-25T18:12:31.792Z</time>
      </trkpt>
      <trkpt lat="52.237193" lon="5.651328">
        <ele>27.511687</ele>
        <time>2026-08-25T18:12:38.404Z</time>
      </trkpt>
      <trkpt lat="52.237189" lon="5.653506">
        <ele>29.166686</ele>
        <time>2026-08-25T18:13:37.679Z</time>
      </trkpt>
      <trkpt lat="52.237220" lon="5.654036">
        <ele>29.597015</ele>
        <time>2026-08-25T18:13:51.521Z</time>
      </trkpt>
      <trkpt lat="52.237223" lon="5.654081">
        <ele>29.633602</ele>
        <time>2026-08-25T18:13:52.697Z</time>
      </trkpt>
      <trkpt lat="52.237387" lon="5.656430">
        <ele>30.682503</ele>
        <time>2026-08-25T18:14:50.367Z</time>
      </trkpt>
      <trkpt lat="52.237394" lon="5.656526">
        <ele>30.716141</ele>
        <time>2026-08-25T18:14:51.490Z</time>
      </trkpt>
      <trkpt lat="52.237399" lon="5.656593">
        <ele>30.739625</ele>
        <time>2026-08-25T18:14:52.278Z</time>
      </trkpt>
      <trkpt lat="52.237409" lon="5.656747">
        <ele>30.793507</ele>
        <time>2026-08-25T18:14:54.084Z</time>
      </trkpt>
      <trkpt lat="52.237451" lon="5.656759">
        <ele>30.817732</ele>
        <time>2026-08-25T18:14:54.894Z</time>
      </trkpt>
      <trkpt lat="52.237539" lon="5.656767">
        <ele>30.867807</ele>
        <time>2026-08-25T18:14:56.566Z</time>
      </trkpt>
      <trkpt lat="52.237642" lon="5.656756">
        <ele>30.926452</ele>
        <time>2026-08-25T18:14:58.528Z</time>
      </trkpt>
      <trkpt lat="52.237733" lon="5.656690">
        <ele>30.983025</ele>
        <time>2026-08-25T18:15:00.414Z</time>
      </trkpt>
      <trkpt lat="52.237925" lon="5.656021">
        <ele>31.153384</ele>
        <time>2026-08-25T18:15:09.000Z</time>
      </trkpt>
      <trkpt lat="52.238579" lon="5.654497">
        <ele>31.501001</ele>
        <time>2026-08-25T18:15:30.347Z</time>
      </trkpt>
      <trkpt lat="52.238999" lon="5.653369">
        <ele>31.543746</ele>
        <time>2026-08-25T18:15:44.371Z</time>
      </trkpt>
      <trkpt lat="52.239089" lon="5.653187">
        <ele>31.526464</ele>
        <time>2026-08-25T18:15:46.816Z</time>
      </trkpt>
      <trkpt lat="52.239169" lon="5.653091">
        <ele>31.514487</ele>
        <time>2026-08-25T18:15:48.492Z</time>
      </trkpt>
      <trkpt lat="52.239477" lon="5.652901">
        <ele>31.474767</ele>
        <time>2026-08-25T18:15:54.036Z</time>
      </trkpt>
      <trkpt lat="52.239565" lon="5.652735">
        <ele>31.458546</ele>
        <time>2026-08-25T18:15:56.271Z</time>
      </trkpt>
      <trkpt lat="52.239648" lon="5.652482">
        <ele>31.437342</ele>
        <time>2026-08-25T18:15:59.160Z</time>
      </trkpt>
      <trkpt lat="52.239816" lon="5.651750">
        <ele>31.365825</ele>
        <time>2026-08-25T18:16:06.923Z</time>
      </trkpt>
      <trkpt lat="52.239954" lon="5.651438">
        <ele>31.258109</ele>
        <time>2026-08-25T18:16:10.699Z</time>
      </trkpt>
      <trkpt lat="52.241937" lon="5.648487">
        <ele>30.332855</ele>
        <time>2026-08-25T18:16:53.253Z</time>
      </trkpt>
      <trkpt lat="52.242339" lon="5.647985">
        <ele>30.232750</ele>
        <time>2026-08-25T18:17:02.380Z</time>
      </trkpt>
      <trkpt lat="52.242570" lon="5.647593">
        <ele>30.328286</ele>
        <time>2026-08-25T18:17:08.662Z</time>
      </trkpt>
      <trkpt lat="52.242655" lon="5.647360">
        <ele>30.428590</ele>
        <time>2026-08-25T18:17:11.853Z</time>
      </trkpt>
      <trkpt lat="52.242876" lon="5.646982">
        <ele>30.621875</ele>
        <time>2026-08-25T18:17:18.059Z</time>
      </trkpt>
      <trkpt lat="52.243011" lon="5.646889">
        <ele>30.710370</ele>
        <time>2026-08-25T18:17:20.932Z</time>
      </trkpt>
      <trkpt lat="52.243002" lon="5.646822">
        <ele>30.735737</ele>
        <time>2026-08-25T18:17:21.817Z</time>
      </trkpt>
      <trkpt lat="52.243021" lon="5.646747">
        <ele>30.765754</ele>
        <time>2026-08-25T18:17:22.904Z</time>
      </trkpt>
      <trkpt lat="52.243368" lon="5.646522">
        <ele>30.991249</ele>
        <time>2026-08-25T18:17:31.022Z</time>
      </trkpt>
      <trkpt lat="52.243666" lon="5.646360">
        <ele>31.180944</ele>
        <time>2026-08-25T18:17:37.928Z</time>
      </trkpt>
      <trkpt lat="52.243838" lon="5.646363">
        <ele>31.284834</ele>
        <time>2026-08-25T18:17:41.748Z</time>
      </trkpt>
      <trkpt lat="52.247109" lon="5.644494">
        <ele>34.734298</ele>
        <time>2026-08-25T18:19:04.367Z</time>
      </trkpt>
      <trkpt lat="52.247115" lon="5.644538">
        <ele>34.760126</ele>
        <time>2026-08-25T18:19:05.459Z</time>
      </trkpt>
      <trkpt lat="52.246677" lon="5.644788">
        <ele>34.958215</ele>
        <time>2026-08-25T18:19:20.627Z</time>
      </trkpt>
      <trkpt lat="52.247115" lon="5.644538">
        <ele>35.075913</ele>
        <time>2026-08-25T18:19:35.314Z</time>
      </trkpt>
      <trkpt lat="52.247236" lon="5.645187">
        <ele>35.181281</ele>
        <time>2026-08-25T18:19:50.702Z</time>
      </trkpt>
      <trkpt lat="52.247322" lon="5.645835">
        <ele>35.284261</ele>
        <time>2026-08-25T18:20:06.336Z</time>
      </trkpt>
      <trkpt lat="52.247532" lon="5.646822">
        <ele>35.568553</ele>
        <time>2026-08-25T18:20:31.120Z</time>
      </trkpt>
      <trkpt lat="52.247904" lon="5.649101">
        <ele>36.260429</ele>
        <time>2026-08-25T18:21:28.720Z</time>
      </trkpt>
      <trkpt lat="52.248030" lon="5.650016">
        <ele>36.324070</ele>
        <time>2026-08-25T18:21:50.493Z</time>
      </trkpt>
      <trkpt lat="52.247989" lon="5.652343">
        <ele>36.605362</ele>
        <time>2026-08-25T18:22:43.011Z</time>
      </trkpt>
      <trkpt lat="52.248109" lon="5.653199">
        <ele>36.872944</ele>
        <time>2026-08-25T18:23:03.648Z</time>
      </trkpt>
      <trkpt lat="52.248104" lon="5.653771">
        <ele>37.047256</ele>
        <time>2026-08-25T18:23:17.625Z</time>
      </trkpt>
      <trkpt lat="52.248679" lon="5.654563">
        <ele>37.599899</ele>
        <time>2026-08-25T18:23:48.458Z</time>
      </trkpt>
      <trkpt lat="52.248821" lon="5.654815">
        <ele>37.937660</ele>
        <time>2026-08-25T18:23:57.204Z</time>
      </trkpt>
      <trkpt lat="52.248995" lon="5.655271">
        <ele>38.467557</ele>
        <time>2026-08-25T18:24:11.565Z</time>
      </trkpt>
      <trkpt lat="52.249625" lon="5.655818">
        <ele>39.616836</ele>
        <time>2026-08-25T18:24:43.982Z</time>
      </trkpt>
      <trkpt lat="52.250639" lon="5.657436">
        <ele>41.665095</ele>
        <time>2026-08-25T18:25:49.614Z</time>
      </trkpt>
      <trkpt lat="52.251303" lon="5.658431">
        <ele>42.929690</ele>
        <time>2026-08-25T18:26:25.142Z</time>
      </trkpt>
      <trkpt lat="52.251704" lon="5.659148">
        <ele>43.834476</ele>
        <time>2026-08-25T18:26:47.898Z</time>
      </trkpt>
      <trkpt lat="52.252268" lon="5.660109">
        <ele>45.074758</ele>
        <time>2026-08-25T18:27:24.354Z</time>
      </trkpt>
      <trkpt lat="52.252589" lon="5.660602">
        <ele>46.031440</ele>
        <time>2026-08-25T18:27:47.185Z</time>
      </trkpt>
      <trkpt lat="52.253171" lon="5.661729">
        <ele>48.800368</ele>
        <time>2026-08-25T18:28:35.752Z</time>
      </trkpt>
      <trkpt lat="52.253628" lon="5.662307">
        <ele>50.573381</ele>
        <time>2026-08-25T18:29:04.903Z</time>
      </trkpt>
      <trkpt lat="52.253794" lon="5.662635">
        <ele>51.149972</ele>
        <time>2026-08-25T18:29:17.265Z</time>
      </trkpt>
      <trkpt lat="52.253992" lon="5.663170">
        <ele>51.656253</ele>
        <time>2026-08-25T18:29:34.469Z</time>
      </trkpt>
      <trkpt lat="52.254188" lon="5.663906">
        <ele>52.306239</ele>
        <time>2026-08-25T18:29:55.248Z</time>
      </trkpt>
      <trkpt lat="52.254318" lon="5.664542">
        <ele>52.849239</ele>
        <time>2026-08-25T18:30:11.897Z</time>
      </trkpt>
      <trkpt lat="52.254449" lon="5.665379">
        <ele>53.484673</ele>
        <time>2026-08-25T18:30:33.290Z</time>
      </trkpt>
      <trkpt lat="52.254612" lon="5.665921">
        <ele>53.806966</ele>
        <time>2026-08-25T18:30:48.725Z</time>
      </trkpt>
      <trkpt lat="52.254750" lon="5.666163">
        <ele>53.983480</ele>
        <time>2026-08-25T18:30:57.424Z</time>
      </trkpt>
      <trkpt lat="52.255189" lon="5.666308">
        <ele>54.373967</ele>
        <time>2026-08-25T18:31:15.101Z</time>
      </trkpt>
      <trkpt lat="52.255752" lon="5.666413">
        <ele>54.868008</ele>
        <time>2026-08-25T18:31:36.276Z</time>
      </trkpt>
      <trkpt lat="52.256053" lon="5.666660">
        <ele>54.690333</ele>
        <time>2026-08-25T18:31:47.897Z</time>
      </trkpt>
      <trkpt lat="52.255904" lon="5.667089">
        <ele>54.420895</ele>
        <time>2026-08-25T18:31:53.613Z</time>
      </trkpt>
      <trkpt lat="52.255416" lon="5.668268">
        <ele>53.643441</ele>
        <time>2026-08-25T18:32:08.406Z</time>
      </trkpt>
      <trkpt lat="52.255223" lon="5.668658">
        <ele>53.369488</ele>
        <time>2026-08-25T18:32:13.414Z</time>
      </trkpt>
      <trkpt lat="52.254525" lon="5.669874">
        <ele>52.526070</ele>
        <time>2026-08-25T18:32:30.764Z</time>
      </trkpt>
      <trkpt lat="52.254270" lon="5.670170">
        <ele>52.268606</ele>
        <time>2026-08-25T18:32:36.522Z</time>
      </trkpt>
      <trkpt lat="52.254033" lon="5.670373">
        <ele>52.048359</ele>
        <time>2026-08-25T18:32:41.615Z</time>
      </trkpt>
      <trkpt lat="52.253948" lon="5.670524">
        <ele>51.945005</ele>
        <time>2026-08-25T18:32:44.035Z</time>
      </trkpt>
      <trkpt lat="52.252948" lon="5.672683">
        <ele>52.112365</ele>
        <time>2026-08-25T18:33:19.246Z</time>
      </trkpt>
      <trkpt lat="52.252756" lon="5.672931">
        <ele>52.155299</ele>
        <time>2026-08-25T18:33:24.271Z</time>
      </trkpt>
      <trkpt lat="52.252488" lon="5.673850">
        <ele>52.222680</ele>
        <time>2026-08-25T18:33:36.418Z</time>
      </trkpt>
      <trkpt lat="52.252183" lon="5.674050">
        <ele>52.257482</ele>
        <time>2026-08-25T18:33:42.652Z</time>
      </trkpt>
      <trkpt lat="52.251813" lon="5.674445">
        <ele>52.304288</ele>
        <time>2026-08-25T18:33:51.232Z</time>
      </trkpt>
      <trkpt lat="52.251393" lon="5.675147">
        <ele>52.576313</ele>
        <time>2026-08-25T18:34:04.027Z</time>
      </trkpt>
      <trkpt lat="52.252206" lon="5.679456">
        <ele>56.008475</ele>
        <time>2026-08-25T18:36:05.325Z</time>
      </trkpt>
      <trkpt lat="52.252351" lon="5.680331">
        <ele>56.661873</ele>
        <time>2026-08-25T18:36:27.930Z</time>
      </trkpt>
      <trkpt lat="52.252470" lon="5.680987">
        <ele>56.844578</ele>
        <time>2026-08-25T18:36:44.277Z</time>
      </trkpt>
      <trkpt lat="52.253024" lon="5.684038">
        <ele>56.938641</ele>
        <time>2026-08-25T18:37:57.072Z</time>
      </trkpt>
      <trkpt lat="52.253782" lon="5.685498">
        <ele>56.479292</ele>
        <time>2026-08-25T18:38:39.002Z</time>
      </trkpt>
      <trkpt lat="52.256038" lon="5.684158">
        <ele>55.072832</ele>
        <time>2026-08-25T18:40:02.723Z</time>
      </trkpt>
      <trkpt lat="52.256877" lon="5.683706">
        <ele>55.164575</ele>
        <time>2026-08-25T18:40:36.073Z</time>
      </trkpt>
      <trkpt lat="52.259113" lon="5.682503">
        <ele>56.791537</ele>
        <time>2026-08-25T18:42:12.224Z</time>
      </trkpt>
      <trkpt lat="52.259577" lon="5.682318">
        <ele>57.222193</ele>
        <time>2026-08-25T18:42:32.541Z</time>
      </trkpt>
      <trkpt lat="52.259892" lon="5.682239">
        <ele>57.509547</ele>
        <time>2026-08-25T18:42:46.003Z</time>
      </trkpt>
      <trkpt lat="52.260526" lon="5.681826">
        <ele>58.124975</ele>
        <time>2026-08-25T18:43:14.424Z</time>
      </trkpt>
      <trkpt lat="52.261472" lon="5.681352">
        <ele>58.169156</ele>
        <time>2026-08-25T18:43:51.991Z</time>
      </trkpt>
      <trkpt lat="52.261542" lon="5.681209">
        <ele>58.143081</ele>
        <time>2026-08-25T18:43:56.028Z</time>
      </trkpt>
      <trkpt lat="52.261244" lon="5.679882">
        <ele>57.941794</ele>
        <time>2026-08-25T18:44:26.551Z</time>
      </trkpt>
      <trkpt lat="52.262655" lon="5.679567">
        <ele>57.346617</ele>
        <time>2026-08-25T18:45:16.760Z</time>
      </trkpt>
      <trkpt lat="52.262825" lon="5.679621">
        <ele>57.272484</ele>
        <time>2026-08-25T18:45:23.146Z</time>
      </trkpt>
      <trkpt lat="52.264142" lon="5.679275">
        <ele>57.242361</ele>
        <time>2026-08-25T18:46:14.376Z</time>
      </trkpt>
      <trkpt lat="52.264468" lon="5.679186">
        <ele>57.269732</ele>
        <time>2026-08-25T18:46:27.126Z</time>
      </trkpt>
      <trkpt lat="52.264730" lon="5.679156">
        <ele>57.291481</ele>
        <time>2026-08-25T18:46:37.108Z</time>
      </trkpt>
      <trkpt lat="52.264855" lon="5.680623">
        <ele>56.249016</ele>
        <time>2026-08-25T18:46:51.007Z</time>
      </trkpt>
      <trkpt lat="52.264796" lon="5.680652">
        <ele>56.163490</ele>
        <time>2026-08-25T18:46:51.968Z</time>
      </trkpt>
      <trkpt lat="52.264783" lon="5.680691">
        <ele>56.125761</ele>
        <time>2026-08-25T18:46:52.384Z</time>
      </trkpt>
      <trkpt lat="52.264806" lon="5.680866">
        <ele>55.973698</ele>
        <time>2026-08-25T18:46:54.065Z</time>
      </trkpt>
      <trkpt lat="52.264830" lon="5.681021">
        <ele>55.837867</ele>
        <time>2026-08-25T18:46:55.559Z</time>
      </trkpt>
      <trkpt lat="52.264956" lon="5.682741">
        <ele>54.203052</ele>
        <time>2026-08-25T18:47:11.472Z</time>
      </trkpt>
      <trkpt lat="52.264968" lon="5.683144">
        <ele>53.733376</ele>
        <time>2026-08-25T18:47:15.224Z</time>
      </trkpt>
      <trkpt lat="52.265152" lon="5.684898">
        <ele>51.661817</ele>
        <time>2026-08-25T18:47:32.191Z</time>
      </trkpt>
      <trkpt lat="52.265253" lon="5.685704">
        <ele>50.309216</ele>
        <time>2026-08-25T18:47:39.868Z</time>
      </trkpt>
      <trkpt lat="52.265316" lon="5.686226">
        <ele>49.331061</ele>
        <time>2026-08-25T18:47:44.581Z</time>
      </trkpt>
      <trkpt lat="52.265330" lon="5.686687">
        <ele>48.482491</ele>
        <time>2026-08-25T18:47:48.529Z</time>
      </trkpt>
      <trkpt lat="52.265420" lon="5.687209">
        <ele>47.485465</ele>
        <time>2026-08-25T18:47:53.096Z</time>
      </trkpt>
      <trkpt lat="52.265501" lon="5.688079">
        <ele>45.884530</ele>
        <time>2026-08-25T18:48:00.516Z</time>
      </trkpt>
      <trkpt lat="52.265607" lon="5.688886">
        <ele>44.590224</ele>
        <time>2026-08-25T18:48:07.614Z</time>
      </trkpt>
      <trkpt lat="52.265929" lon="5.691744">
        <ele>41.105530</ele>
        <time>2026-08-25T18:48:34.155Z</time>
      </trkpt>
      <trkpt lat="52.266245" lon="5.693132">
        <ele>40.640555</ele>
        <time>2026-08-25T18:48:52.094Z</time>
      </trkpt>
      <trkpt lat="52.266395" lon="5.693384">
        <ele>40.530182</ele>
        <time>2026-08-25T18:48:56.940Z</time>
      </trkpt>
      <trkpt lat="52.266441" lon="5.693524">
        <ele>40.480291</ele>
        <time>2026-08-25T18:48:59.123Z</time>
      </trkpt>
      <trkpt lat="52.266450" lon="5.693665">
        <ele>40.410124</ele>
        <time>2026-08-25T18:49:01.068Z</time>
      </trkpt>
      <trkpt lat="52.266560" lon="5.694047">
        <ele>40.057332</ele>
        <time>2026-08-25T18:49:06.346Z</time>
      </trkpt>
      <trkpt lat="52.266634" lon="5.694490">
        <ele>39.673596</ele>
        <time>2026-08-25T18:49:11.396Z</time>
      </trkpt>
      <trkpt lat="52.266765" lon="5.694834">
        <ele>39.335021</ele>
        <time>2026-08-25T18:49:15.524Z</time>
      </trkpt>
      <trkpt lat="52.266939" lon="5.695044">
        <ele>39.039648</ele>
        <time>2026-08-25T18:49:18.903Z</time>
      </trkpt>
      <trkpt lat="52.267015" lon="5.695211">
        <ele>38.865739</ele>
        <time>2026-08-25T18:49:20.844Z</time>
      </trkpt>
      <trkpt lat="52.267064" lon="5.695416">
        <ele>38.681829</ele>
        <time>2026-08-25T18:49:22.849Z</time>
      </trkpt>
      <trkpt lat="52.267091" lon="5.695681">
        <ele>38.457335</ele>
        <time>2026-08-25T18:49:25.273Z</time>
      </trkpt>
      <trkpt lat="52.267215" lon="5.696457">
        <ele>37.523850</ele>
        <time>2026-08-25T18:49:32.335Z</time>
      </trkpt>
      <trkpt lat="52.267289" lon="5.697163">
        <ele>36.167975</ele>
        <time>2026-08-25T18:49:38.483Z</time>
      </trkpt>
      <trkpt lat="52.267280" lon="5.697774">
        <ele>35.011056</ele>
        <time>2026-08-25T18:49:43.717Z</time>
      </trkpt>
      <trkpt lat="52.267234" lon="5.698106">
        <ele>34.366695</ele>
        <time>2026-08-25T18:49:46.656Z</time>
      </trkpt>
      <trkpt lat="52.267295" lon="5.698570">
        <ele>33.468334</ele>
        <time>2026-08-25T18:49:50.792Z</time>
      </trkpt>
      <trkpt lat="52.267314" lon="5.699391">
        <ele>32.006462</ele>
        <time>2026-08-25T18:49:57.919Z</time>
      </trkpt>
      <trkpt lat="52.267463" lon="5.701365">
        <ele>28.919068</ele>
        <time>2026-08-25T18:50:15.391Z</time>
      </trkpt>
      <trkpt lat="52.267517" lon="5.701597">
        <ele>28.533774</ele>
        <time>2026-08-25T18:50:17.680Z</time>
      </trkpt>
      <trkpt lat="52.267537" lon="5.701684">
        <ele>28.389514</ele>
        <time>2026-08-25T18:50:18.557Z</time>
      </trkpt>
      <trkpt lat="52.267582" lon="5.702570">
        <ele>27.549121</ele>
        <time>2026-08-25T18:50:27.167Z</time>
      </trkpt>
      <trkpt lat="52.267606" lon="5.704006">
        <ele>26.718356</ele>
        <time>2026-08-25T18:50:41.945Z</time>
      </trkpt>
      <trkpt lat="52.267557" lon="5.704043">
        <ele>26.667346</ele>
        <time>2026-08-25T18:50:42.886Z</time>
      </trkpt>
      <trkpt lat="52.267604" lon="5.704183">
        <ele>26.575000</ele>
        <time>2026-08-25T18:50:45.025Z</time>
      </trkpt>
      <trkpt lat="52.267671" lon="5.704178">
        <ele>26.511620</ele>
        <time>2026-08-25T18:50:46.098Z</time>
      </trkpt>
      <trkpt lat="52.267797" lon="5.704173">
        <ele>26.392516</ele>
        <time>2026-08-25T18:50:48.136Z</time>
      </trkpt>
      <trkpt lat="52.268196" lon="5.704185">
        <ele>26.130375</ele>
        <time>2026-08-25T18:50:54.490Z</time>
      </trkpt>
      <trkpt lat="52.268334" lon="5.704189">
        <ele>26.097044</ele>
        <time>2026-08-25T18:50:56.669Z</time>
      </trkpt>
      <trkpt lat="52.268594" lon="5.704197">
        <ele>26.034246</ele>
        <time>2026-08-25T18:51:00.772Z</time>
      </trkpt>
      <trkpt lat="52.269112" lon="5.704250">
        <ele>25.908909</ele>
        <time>2026-08-25T18:51:09.152Z</time>
      </trkpt>
      <trkpt lat="52.269532" lon="5.704305">
        <ele>25.807158</ele>
        <time>2026-08-25T18:51:16.330Z</time>
      </trkpt>
      <trkpt lat="52.269734" lon="5.704390">
        <ele>25.756786</ele>
        <time>2026-08-25T18:51:20.030Z</time>
      </trkpt>
      <trkpt lat="52.269890" lon="5.704251">
        <ele>25.734317</ele>
        <time>2026-08-25T18:51:23.590Z</time>
      </trkpt>
      <trkpt lat="52.270027" lon="5.704131">
        <ele>25.732281</ele>
        <time>2026-08-25T18:51:26.678Z</time>
      </trkpt>
      <trkpt lat="52.270167" lon="5.704009">
        <ele>25.730204</ele>
        <time>2026-08-25T18:51:29.799Z</time>
      </trkpt>
      <trkpt lat="52.270356" lon="5.703843">
        <ele>25.727394</ele>
        <time>2026-08-25T18:51:33.960Z</time>
      </trkpt>
      <trkpt lat="52.270567" lon="5.703706">
        <ele>25.724421</ele>
        <time>2026-08-25T18:51:38.380Z</time>
      </trkpt>
      <trkpt lat="52.270868" lon="5.703602">
        <ele>25.720392</ele>
        <time>2026-08-25T18:51:44.244Z</time>
      </trkpt>
      <trkpt lat="52.271355" lon="5.703551">
        <ele>25.714002</ele>
        <time>2026-08-25T18:51:53.313Z</time>
      </trkpt>
      <trkpt lat="52.273330" lon="5.703494">
        <ele>25.607372</ele>
        <time>2026-08-25T18:52:32.204Z</time>
      </trkpt>
      <trkpt lat="52.273548" lon="5.703622">
        <ele>25.592813</ele>
        <time>2026-08-25T18:52:36.955Z</time>
      </trkpt>
      <trkpt lat="52.273584" lon="5.703647">
        <ele>25.590354</ele>
        <time>2026-08-25T18:52:37.753Z</time>
      </trkpt>
      <trkpt lat="52.273785" lon="5.703719">
        <ele>25.577421</ele>
        <time>2026-08-25T18:52:41.803Z</time>
      </trkpt>
      <trkpt lat="52.275147" lon="5.703984">
        <ele>25.491142</ele>
        <time>2026-08-25T18:53:07.850Z</time>
      </trkpt>
      <trkpt lat="52.275962" lon="5.704092">
        <ele>25.438901</ele>
        <time>2026-08-25T18:53:23.134Z</time>
      </trkpt>
      <trkpt lat="52.276270" lon="5.704046">
        <ele>25.419140</ele>
        <time>2026-08-25T18:53:29.045Z</time>
      </trkpt>
      <trkpt lat="52.276593" lon="5.703891">
        <ele>25.397632</ele>
        <time>2026-08-25T18:53:35.515Z</time>
      </trkpt>
      <trkpt lat="52.277205" lon="5.703475">
        <ele>25.266462</ele>
        <time>2026-08-25T18:53:48.324Z</time>
      </trkpt>
      <trkpt lat="52.278269" lon="5.703103">
        <ele>24.952984</ele>
        <time>2026-08-25T18:54:08.406Z</time>
      </trkpt>
      <trkpt lat="52.278528" lon="5.703127">
        <ele>24.878246</ele>
        <time>2026-08-25T18:54:13.015Z</time>
      </trkpt>
      <trkpt lat="52.278665" lon="5.703162">
        <ele>24.820672</ele>
        <time>2026-08-25T18:54:15.453Z</time>
      </trkpt>
      <trkpt lat="52.278879" lon="5.703216">
        <ele>24.712670</ele>
        <time>2026-08-25T18:54:19.198Z</time>
      </trkpt>
      <trkpt lat="52.279392" lon="5.703388">
        <ele>24.451474</ele>
        <time>2026-08-25T18:54:28.184Z</time>
      </trkpt>
      <trkpt lat="52.280306" lon="5.703646">
        <ele>23.988850</ele>
        <time>2026-08-25T18:54:44.988Z</time>
      </trkpt>
      <trkpt lat="52.280358" lon="5.703350">
        <ele>23.956415</ele>
        <time>2026-08-25T18:54:48.497Z</time>
      </trkpt>
      <trkpt lat="52.280409" lon="5.703148">
        <ele>23.948011</ele>
        <time>2026-08-25T18:54:50.962Z</time>
      </trkpt>
      <trkpt lat="52.280466" lon="5.703036">
        <ele>23.942407</ele>
        <time>2026-08-25T18:54:52.640Z</time>
      </trkpt>
      <trkpt lat="52.280702" lon="5.702831">
        <ele>23.925607</ele>
        <time>2026-08-25T18:54:57.686Z</time>
      </trkpt>
      <trkpt lat="52.280762" lon="5.702735">
        <ele>23.920328</ele>
        <time>2026-08-25T18:54:59.265Z</time>
      </trkpt>
      <trkpt lat="52.280779" lon="5.702654">
        <ele>23.917035</ele>
        <time>2026-08-25T18:55:00.306Z</time>
      </trkpt>
      <trkpt lat="52.280949" lon="5.701329">
        <ele>23.864967</ele>
        <time>2026-08-25T18:55:16.325Z</time>
      </trkpt>
      <trkpt lat="52.281010" lon="5.700597">
        <ele>23.832653</ele>
        <time>2026-08-25T18:55:24.922Z</time>
      </trkpt>
      <trkpt lat="52.281158" lon="5.700046">
        <ele>23.803744</ele>
        <time>2026-08-25T18:55:32.059Z</time>
      </trkpt>
      <trkpt lat="52.281226" lon="5.699651">
        <ele>23.784032</ele>
        <time>2026-08-25T18:55:36.862Z</time>
      </trkpt>
      <trkpt lat="52.281213" lon="5.698920">
        <ele>23.748901</ele>
        <time>2026-08-25T18:55:45.324Z</time>
      </trkpt>
      <trkpt lat="52.281350" lon="5.698798">
        <ele>23.736650</ele>
        <time>2026-08-25T18:55:48.251Z</time>
      </trkpt>
      <trkpt lat="52.281401" lon="5.698748">
        <ele>23.731981</ele>
        <time>2026-08-25T18:55:49.360Z</time>
      </trkpt>
      <trkpt lat="52.281514" lon="5.698586">
        <ele>23.720178</ele>
        <time>2026-08-25T18:55:51.854Z</time>
      </trkpt>
      <trkpt lat="52.281590" lon="5.698406">
        <ele>23.707360</ele>
        <time>2026-08-25T18:55:54.083Z</time>
      </trkpt>
      <trkpt lat="52.281805" lon="5.697178">
        <ele>23.538022</ele>
        <time>2026-08-25T18:56:06.982Z</time>
      </trkpt>
      <trkpt lat="52.282015" lon="5.696293">
        <ele>23.412177</ele>
        <time>2026-08-25T18:56:16.529Z</time>
      </trkpt>
      <trkpt lat="52.282205" lon="5.695661">
        <ele>23.320034</ele>
        <time>2026-08-25T18:56:23.640Z</time>
      </trkpt>
      <trkpt lat="52.282363" lon="5.695276">
        <ele>23.289766</ele>
        <time>2026-08-25T18:56:28.327Z</time>
      </trkpt>
      <trkpt lat="52.282605" lon="5.694561">
        <ele>23.236418</ele>
        <time>2026-08-25T18:56:36.526Z</time>
      </trkpt>
      <trkpt lat="52.282779" lon="5.693931">
        <ele>23.191289</ele>
        <time>2026-08-25T18:56:43.536Z</time>
      </trkpt>
      <trkpt lat="52.283022" lon="5.693314">
        <ele>23.143381</ele>
        <time>2026-08-25T18:56:51.124Z</time>
      </trkpt>
      <trkpt lat="52.283422" lon="5.692430">
        <ele>23.390911</ele>
        <time>2026-08-25T18:57:03.365Z</time>
      </trkpt>
      <trkpt lat="52.284054" lon="5.690857">
        <ele>23.948393</ele>
        <time>2026-08-25T18:57:26.084Z</time>
      </trkpt>
      <trkpt lat="52.284466" lon="5.689961">
        <ele>24.537748</ele>
        <time>2026-08-25T18:57:40.091Z</time>
      </trkpt>
      <trkpt lat="52.284925" lon="5.689201">
        <ele>25.144626</ele>
        <time>2026-08-25T18:57:53.889Z</time>
      </trkpt>
      <trkpt lat="52.286054" lon="5.686592">
        <ele>27.809904</ele>
        <time>2026-08-25T18:58:38.765Z</time>
      </trkpt>
      <trkpt lat="52.286355" lon="5.685891">
        <ele>28.684243</ele>
        <time>2026-08-25T18:58:52.592Z</time>
      </trkpt>
      <trkpt lat="52.286781" lon="5.685154">
        <ele>30.006704</ele>
        <time>2026-08-25T18:59:09.811Z</time>
      </trkpt>
      <trkpt lat="52.286987" lon="5.684862">
        <ele>30.588031</ele>
        <time>2026-08-25T18:59:17.554Z</time>
      </trkpt>
      <trkpt lat="52.287728" lon="5.684008">
        <ele>32.338935</ele>
        <time>2026-08-25T18:59:41.885Z</time>
      </trkpt>
      <trkpt lat="52.288215" lon="5.683553">
        <ele>32.642463</ele>
        <time>2026-08-25T18:59:54.758Z</time>
      </trkpt>
      <trkpt lat="52.288250" lon="5.683181">
        <ele>32.767043</ele>
        <time>2026-08-25T18:59:59.522Z</time>
      </trkpt>
      <trkpt lat="52.288699" lon="5.680989">
        <ele>32.767600</ele>
        <time>2026-08-25T19:00:25.429Z</time>
      </trkpt>
      <trkpt lat="52.288912" lon="5.679962">
        <ele>32.153022</ele>
        <time>2026-08-25T19:00:36.400Z</time>
      </trkpt>
      <trkpt lat="52.289147" lon="5.678831">
        <ele>31.456065</ele>
        <time>2026-08-25T19:00:48.406Z</time>
      </trkpt>
      <trkpt lat="52.289439" lon="5.677424">
        <ele>30.457585</ele>
        <time>2026-08-25T19:01:03.665Z</time>
      </trkpt>
      <trkpt lat="52.289837" lon="5.675530">
        <ele>29.097299</ele>
        <time>2026-08-25T19:01:24.162Z</time>
      </trkpt>
      <trkpt lat="52.290120" lon="5.674201">
        <ele>28.124038</ele>
        <time>2026-08-25T19:01:38.276Z</time>
      </trkpt>
      <trkpt lat="52.290495" lon="5.672339">
        <ele>27.035361</ele>
        <time>2026-08-25T19:01:58.625Z</time>
      </trkpt>
      <trkpt lat="52.290713" lon="5.671288">
        <ele>26.522271</ele>
        <time>2026-08-25T19:02:10.663Z</time>
      </trkpt>
      <trkpt lat="52.290751" lon="5.671106">
        <ele>26.433360</ele>
        <time>2026-08-25T19:02:12.746Z</time>
      </trkpt>
      <trkpt lat="52.290914" lon="5.670319">
        <ele>26.074845</ele>
        <time>2026-08-25T19:02:21.697Z</time>
      </trkpt>
      <trkpt lat="52.291328" lon="5.668323">
        <ele>25.251583</ele>
        <time>2026-08-25T19:02:44.108Z</time>
      </trkpt>
      <trkpt lat="52.291611" lon="5.666964">
        <ele>25.147180</ele>
        <time>2026-08-25T19:02:59.970Z</time>
      </trkpt>
      <trkpt lat="52.291943" lon="5.665490">
        <ele>25.280319</ele>
        <time>2026-08-25T19:03:20.288Z</time>
      </trkpt>
      <trkpt lat="52.291956" lon="5.665443">
        <ele>25.284692</ele>
        <time>2026-08-25T19:03:20.981Z</time>
      </trkpt>
      <trkpt lat="52.291968" lon="5.665357">
        <ele>25.292168</ele>
        <time>2026-08-25T19:03:22.134Z</time>
      </trkpt>
      <trkpt lat="52.292183" lon="5.664248">
        <ele>25.347671</ele>
        <time>2026-08-25T19:03:37.175Z</time>
      </trkpt>
      <trkpt lat="52.292342" lon="5.663362">
        <ele>25.381377</ele>
        <time>2026-08-25T19:03:48.487Z</time>
      </trkpt>
      <trkpt lat="52.292355" lon="5.663198">
        <ele>25.387414</ele>
        <time>2026-08-25T19:03:50.393Z</time>
      </trkpt>
      <trkpt lat="52.292329" lon="5.663027">
        <ele>25.393846</ele>
        <time>2026-08-25T19:03:52.393Z</time>
      </trkpt>
      <trkpt lat="52.291600" lon="5.660666">
        <ele>25.158663</ele>
        <time>2026-08-25T19:04:21.769Z</time>
      </trkpt>
      <trkpt lat="52.291572" lon="5.660561">
        <ele>25.142440</ele>
        <time>2026-08-25T19:04:23.098Z</time>
      </trkpt>
      <trkpt lat="52.291438" lon="5.660173">
        <ele>25.079332</ele>
        <time>2026-08-25T19:04:28.342Z</time>
      </trkpt>
      <trkpt lat="52.290451" lon="5.657198">
        <ele>25.002373</ele>
        <time>2026-08-25T19:05:08.013Z</time>
      </trkpt>
      <trkpt lat="52.290015" lon="5.656033">
        <ele>25.127001</ele>
        <time>2026-08-25T19:05:24.127Z</time>
      </trkpt>
      <trkpt lat="52.289961" lon="5.655811">
        <ele>25.150077</ele>
        <time>2026-08-25T19:05:27.070Z</time>
      </trkpt>
      <trkpt lat="52.289960" lon="5.655329">
        <ele>25.196632</ele>
        <time>2026-08-25T19:05:33.042Z</time>
      </trkpt>
      <trkpt lat="52.289992" lon="5.654318">
        <ele>25.301132</ele>
        <time>2026-08-25T19:05:45.866Z</time>
      </trkpt>
      <trkpt lat="52.290164" lon="5.649807">
        <ele>25.890533</ele>
        <time>2026-08-25T19:06:42.130Z</time>
      </trkpt>
      <trkpt lat="52.290272" lon="5.649276">
        <ele>25.919103</ele>
        <time>2026-08-25T19:06:48.693Z</time>
      </trkpt>
      <trkpt lat="52.290612" lon="5.648219">
        <ele>25.809564</ele>
        <time>2026-08-25T19:07:02.326Z</time>
      </trkpt>
      <trkpt lat="52.291149" lon="5.646507">
        <ele>25.219200</ele>
        <time>2026-08-25T19:07:23.596Z</time>
      </trkpt>
      <trkpt lat="52.291228" lon="5.646253">
        <ele>25.131765</ele>
        <time>2026-08-25T19:07:26.568Z</time>
      </trkpt>
      <trkpt lat="52.291343" lon="5.645883">
        <ele>24.982693</ele>
        <time>2026-08-25T19:07:30.811Z</time>
      </trkpt>
      <trkpt lat="52.291308" lon="5.645714">
        <ele>24.903684</ele>
        <time>2026-08-25T19:07:32.622Z</time>
      </trkpt>
      <trkpt lat="52.291275" lon="5.645680">
        <ele>24.875445</ele>
        <time>2026-08-25T19:07:33.426Z</time>
      </trkpt>
      <trkpt lat="52.291210" lon="5.645461">
        <ele>24.767654</ele>
        <time>2026-08-25T19:07:36.457Z</time>
      </trkpt>
      <trkpt lat="52.291040" lon="5.644831">
        <ele>24.462738</ele>
        <time>2026-08-25T19:07:45.089Z</time>
      </trkpt>
      <trkpt lat="52.290980" lon="5.644581">
        <ele>24.343817</ele>
        <time>2026-08-25T19:07:48.512Z</time>
      </trkpt>
      <trkpt lat="52.290905" lon="5.644277">
        <ele>24.198662</ele>
        <time>2026-08-25T19:07:52.731Z</time>
      </trkpt>
      <trkpt lat="52.290784" lon="5.643783">
        <ele>23.963022</ele>
        <time>2026-08-25T19:07:59.664Z</time>
      </trkpt>
      <trkpt lat="52.290560" lon="5.643744">
        <ele>23.799936</ele>
        <time>2026-08-25T19:08:03.212Z</time>
      </trkpt>
      <trkpt lat="52.290458" lon="5.643824">
        <ele>23.790434</ele>
        <time>2026-08-25T19:08:05.279Z</time>
      </trkpt>
      <trkpt lat="52.289835" lon="5.644818">
        <ele>24.532683</ele>
        <time>2026-08-25T19:08:24.471Z</time>
      </trkpt>
      <trkpt lat="52.289651" lon="5.645200">
        <ele>24.786272</ele>
        <time>2026-08-25T19:08:31.932Z</time>
      </trkpt>
      <trkpt lat="52.289514" lon="5.645319">
        <ele>24.918551</ele>
        <time>2026-08-25T19:08:35.879Z</time>
      </trkpt>
      <trkpt lat="52.289122" lon="5.646004">
        <ele>25.416462</ele>
        <time>2026-08-25T19:08:50.356Z</time>
      </trkpt>
      <trkpt lat="52.288793" lon="5.646477">
        <ele>25.816393</ele>
        <time>2026-08-25T19:09:01.179Z</time>
      </trkpt>
      <trkpt lat="52.288192" lon="5.647454">
        <ele>26.590068</ele>
        <time>2026-08-25T19:09:20.242Z</time>
      </trkpt>
      <trkpt lat="52.288027" lon="5.647970">
        <ele>26.915182</ele>
        <time>2026-08-25T19:09:27.751Z</time>
      </trkpt>
      <trkpt lat="52.287917" lon="5.648104">
        <ele>26.983518</ele>
        <time>2026-08-25T19:09:30.606Z</time>
      </trkpt>
      <trkpt lat="52.287767" lon="5.648176">
        <ele>27.054780</ele>
        <time>2026-08-25T19:09:33.865Z</time>
      </trkpt>
      <trkpt lat="52.287663" lon="5.648303">
        <ele>27.113953</ele>
        <time>2026-08-25T19:09:36.553Z</time>
      </trkpt>
      <trkpt lat="52.286280" lon="5.650435">
        <ele>27.903950</ele>
        <time>2026-08-25T19:10:16.183Z</time>
      </trkpt>
      <trkpt lat="52.285317" lon="5.652005">
        <ele>28.323037</ele>
        <time>2026-08-25T19:10:43.267Z</time>
      </trkpt>
      <trkpt lat="52.285235" lon="5.652174">
        <ele>28.367092</ele>
        <time>2026-08-25T19:10:45.901Z</time>
      </trkpt>
      <trkpt lat="52.285150" lon="5.652438">
        <ele>28.428023</ele>
        <time>2026-08-25T19:10:49.572Z</time>
      </trkpt>
      <trkpt lat="52.285058" lon="5.652563">
        <ele>28.467963</ele>
        <time>2026-08-25T19:10:51.985Z</time>
      </trkpt>
      <trkpt lat="52.284894" lon="5.652639">
        <ele>28.524875</ele>
        <time>2026-08-25T19:10:55.458Z</time>
      </trkpt>
      <trkpt lat="52.284710" lon="5.652862">
        <ele>28.601348</ele>
        <time>2026-08-25T19:11:00.182Z</time>
      </trkpt>
      <trkpt lat="52.284498" lon="5.653382">
        <ele>28.728978</ele>
        <time>2026-08-25T19:11:08.146Z</time>
      </trkpt>
      <trkpt lat="52.284246" lon="5.653683">
        <ele>28.833179</ele>
        <time>2026-08-25T19:11:14.713Z</time>
      </trkpt>
      <trkpt lat="52.283578" lon="5.654718">
        <ele>29.173580</ele>
        <time>2026-08-25T19:11:32.951Z</time>
      </trkpt>
      <trkpt lat="52.283503" lon="5.654530">
        <ele>29.225701</ele>
        <time>2026-08-25T19:11:35.758Z</time>
      </trkpt>
      <trkpt lat="52.283457" lon="5.654400">
        <ele>29.260576</ele>
        <time>2026-08-25T19:11:37.637Z</time>
      </trkpt>
      <trkpt lat="52.283378" lon="5.653957">
        <ele>29.367733</ele>
        <time>2026-08-25T19:11:43.439Z</time>
      </trkpt>
      <trkpt lat="52.283265" lon="5.653539">
        <ele>29.473858</ele>
        <time>2026-08-25T19:11:49.349Z</time>
      </trkpt>
      <trkpt lat="52.283231" lon="5.653423">
        <ele>29.503728</ele>
        <time>2026-08-25T19:11:51.067Z</time>
      </trkpt>
      <trkpt lat="52.282951" lon="5.652474">
        <ele>30.257121</ele>
        <time>2026-08-25T19:12:06.235Z</time>
      </trkpt>
      <trkpt lat="52.282733" lon="5.651806">
        <ele>30.968839</ele>
        <time>2026-08-25T19:12:19.184Z</time>
      </trkpt>
      <trkpt lat="52.282634" lon="5.651497">
        <ele>31.296741</ele>
        <time>2026-08-25T19:12:27.951Z</time>
      </trkpt>
      <trkpt lat="52.282308" lon="5.650491">
        <ele>32.357748</ele>
        <time>2026-08-25T19:12:56.563Z</time>
      </trkpt>
      <trkpt lat="52.282095" lon="5.649798">
        <ele>32.776825</ele>
        <time>2026-08-25T19:13:15.111Z</time>
      </trkpt>
      <trkpt lat="52.281857" lon="5.649062">
        <ele>33.226676</ele>
        <time>2026-08-25T19:13:32.813Z</time>
      </trkpt>
      <trkpt lat="52.281730" lon="5.648857">
        <ele>33.384329</ele>
        <time>2026-08-25T19:13:38.668Z</time>
      </trkpt>
      <trkpt lat="52.281644" lon="5.648764">
        <ele>33.475410</ele>
        <time>2026-08-25T19:13:42.019Z</time>
      </trkpt>
      <trkpt lat="52.281106" lon="5.648300">
        <ele>33.941492</ele>
        <time>2026-08-25T19:14:02.767Z</time>
      </trkpt>
      <trkpt lat="52.280623" lon="5.647913">
        <ele>33.986492</ele>
        <time>2026-08-25T19:14:20.913Z</time>
      </trkpt>
      <trkpt lat="52.280161" lon="5.647481">
        <ele>34.031019</ele>
        <time>2026-08-25T19:14:37.849Z</time>
      </trkpt>
      <trkpt lat="52.279907" lon="5.647237">
        <ele>34.055666</ele>
        <time>2026-08-25T19:14:47.090Z</time>
      </trkpt>
      <trkpt lat="52.279356" lon="5.646674">
        <ele>34.107752</ele>
        <time>2026-08-25T19:15:08.499Z</time>
      </trkpt>
      <trkpt lat="52.279130" lon="5.646387">
        <ele>34.129561</ele>
        <time>2026-08-25T19:15:17.916Z</time>
      </trkpt>
      <trkpt lat="52.279020" lon="5.646249">
        <ele>34.140127</ele>
        <time>2026-08-25T19:15:22.536Z</time>
      </trkpt>
      <trkpt lat="52.278874" lon="5.646061">
        <ele>34.154290</ele>
        <time>2026-08-25T19:15:28.763Z</time>
      </trkpt>
      <trkpt lat="52.278228" lon="5.645233">
        <ele>34.216846</ele>
        <time>2026-08-25T19:15:58.037Z</time>
      </trkpt>
      <trkpt lat="52.278580" lon="5.644338">
        <ele>33.831448</ele>
        <time>2026-08-25T19:16:19.281Z</time>
      </trkpt>
      <trkpt lat="52.278734" lon="5.643945">
        <ele>33.642324</ele>
        <time>2026-08-25T19:16:27.864Z</time>
      </trkpt>
      <trkpt lat="52.279211" lon="5.642910">
        <ele>33.117222</ele>
        <time>2026-08-25T19:16:50.608Z</time>
      </trkpt>
      <trkpt lat="52.279928" lon="5.641386">
        <ele>31.781521</ele>
        <time>2026-08-25T19:17:24.315Z</time>
      </trkpt>
      <trkpt lat="52.280840" lon="5.639506">
        <ele>30.069301</ele>
        <time>2026-08-25T19:18:09.829Z</time>
      </trkpt>
      <trkpt lat="52.281350" lon="5.638431">
        <ele>29.123663</ele>
        <time>2026-08-25T19:18:35.706Z</time>
      </trkpt>
      <trkpt lat="52.281532" lon="5.638040">
        <ele>28.759832</ele>
        <time>2026-08-25T19:18:44.765Z</time>
      </trkpt>
      <trkpt lat="52.281690" lon="5.637685">
        <ele>28.330588</ele>
        <time>2026-08-25T19:18:52.838Z</time>
      </trkpt>
      <trkpt lat="52.282136" lon="5.636686">
        <ele>27.121373</ele>
        <time>2026-08-25T19:19:15.629Z</time>
      </trkpt>
      <trkpt lat="52.282809" lon="5.635276">
        <ele>25.258756</ele>
        <time>2026-08-25T19:19:45.967Z</time>
      </trkpt>
      <trkpt lat="52.284085" lon="5.632524">
        <ele>21.621695</ele>
        <time>2026-08-25T19:20:44.157Z</time>
      </trkpt>
      <trkpt lat="52.284253" lon="5.632159">
        <ele>21.249240</ele>
        <time>2026-08-25T19:20:52.034Z</time>
      </trkpt>
      <trkpt lat="52.285021" lon="5.630466">
        <ele>20.019522</ele>
        <time>2026-08-25T19:21:30.153Z</time>
      </trkpt>
      <trkpt lat="52.285530" lon="5.629389">
        <ele>19.808588</ele>
        <time>2026-08-25T19:21:56.458Z</time>
      </trkpt>
      <trkpt lat="52.285690" lon="5.629050">
        <ele>19.742227</ele>
        <time>2026-08-25T19:22:04.935Z</time>
      </trkpt>
      <trkpt lat="52.285725" lon="5.628997">
        <ele>19.730140</ele>
        <time>2026-08-25T19:22:05.896Z</time>
      </trkpt>
      <trkpt lat="52.286046" lon="5.628298">
        <ele>19.485089</ele>
        <time>2026-08-25T19:22:16.169Z</time>
      </trkpt>
      <trkpt lat="52.286296" lon="5.627662">
        <ele>19.214848</ele>
        <time>2026-08-25T19:22:24.627Z</time>
      </trkpt>
      <trkpt lat="52.286571" lon="5.626628">
        <ele>18.811807</ele>
        <time>2026-08-25T19:22:36.604Z</time>
      </trkpt>
      <trkpt lat="52.286632" lon="5.626590">
        <ele>18.773660</ele>
        <time>2026-08-25T19:22:37.700Z</time>
      </trkpt>
      <trkpt lat="52.286926" lon="5.626538">
        <ele>18.592783</ele>
        <time>2026-08-25T19:22:42.553Z</time>
      </trkpt>
      <trkpt lat="52.287009" lon="5.626419">
        <ele>18.508720</ele>
        <time>2026-08-25T19:22:44.370Z</time>
      </trkpt>
      <trkpt lat="52.287066" lon="5.626207">
        <ele>18.400858</ele>
        <time>2026-08-25T19:22:46.695Z</time>
      </trkpt>
      <trkpt lat="52.287077" lon="5.626068">
        <ele>18.335575</ele>
        <time>2026-08-25T19:22:48.097Z</time>
      </trkpt>
      <trkpt lat="52.287033" lon="5.625929">
        <ele>18.262676</ele>
        <time>2026-08-25T19:22:49.707Z</time>
      </trkpt>
      <trkpt lat="52.286978" lon="5.625883">
        <ele>18.215634</ele>
        <time>2026-08-25T19:22:50.736Z</time>
      </trkpt>
      <trkpt lat="52.286895" lon="5.625971">
        <ele>18.140307</ele>
        <time>2026-08-25T19:22:52.222Z</time>
      </trkpt>
      <trkpt lat="52.286802" lon="5.625948">
        <ele>18.068687</ele>
        <time>2026-08-25T19:22:53.646Z</time>
      </trkpt>
      <trkpt lat="52.286763" lon="5.625901">
        <ele>18.031793</ele>
        <time>2026-08-25T19:22:54.384Z</time>
      </trkpt>
      <trkpt lat="52.286739" lon="5.625806">
        <ele>17.983919</ele>
        <time>2026-08-25T19:22:55.327Z</time>
      </trkpt>
      <trkpt lat="52.286755" lon="5.625567">
        <ele>17.871932</ele>
        <time>2026-08-25T19:22:57.569Z</time>
      </trkpt>
      <trkpt lat="52.286776" lon="5.625483">
        <ele>17.829665</ele>
        <time>2026-08-25T19:22:58.589Z</time>
      </trkpt>
      <trkpt lat="52.286823" lon="5.625262">
        <ele>17.720683</ele>
        <time>2026-08-25T19:23:01.200Z</time>
      </trkpt>
      <trkpt lat="52.286844" lon="5.625161">
        <ele>17.670996</ele>
        <time>2026-08-25T19:23:02.390Z</time>
      </trkpt>
      <trkpt lat="52.286872" lon="5.624939">
        <ele>17.565418</ele>
        <time>2026-08-25T19:23:04.538Z</time>
      </trkpt>
      <trkpt lat="52.286788" lon="5.624350">
        <ele>17.283715</ele>
        <time>2026-08-25T19:23:10.407Z</time>
      </trkpt>
      <trkpt lat="52.286793" lon="5.624079">
        <ele>17.221378</ele>
        <time>2026-08-25T19:23:13.090Z</time>
      </trkpt>
      <trkpt lat="52.286928" lon="5.623542">
        <ele>17.123028</ele>
        <time>2026-08-25T19:23:19.181Z</time>
      </trkpt>
      <trkpt lat="52.287087" lon="5.622941">
        <ele>17.012106</ele>
        <time>2026-08-25T19:23:26.390Z</time>
      </trkpt>
      <trkpt lat="52.287128" lon="5.622611">
        <ele>16.955063</ele>
        <time>2026-08-25T19:23:29.958Z</time>
      </trkpt>
      <trkpt lat="52.287259" lon="5.621561">
        <ele>16.773533</ele>
        <time>2026-08-25T19:23:40.482Z</time>
      </trkpt>
      <trkpt lat="52.287293" lon="5.621411">
        <ele>16.709071</ele>
        <time>2026-08-25T19:23:41.982Z</time>
      </trkpt>
      <trkpt lat="52.287314" lon="5.621294">
        <ele>16.630812</ele>
        <time>2026-08-25T19:23:43.126Z</time>
      </trkpt>
      <trkpt lat="52.287393" lon="5.620808">
        <ele>16.308062</ele>
        <time>2026-08-25T19:23:47.735Z</time>
      </trkpt>
      <trkpt lat="52.287477" lon="5.620054">
        <ele>15.816170</ele>
        <time>2026-08-25T19:23:54.562Z</time>
      </trkpt>
      <trkpt lat="52.287523" lon="5.619313">
        <ele>15.338139</ele>
        <time>2026-08-25T19:24:01.176Z</time>
      </trkpt>
      <trkpt lat="52.287507" lon="5.619175">
        <ele>15.247992</ele>
        <time>2026-08-25T19:24:02.425Z</time>
      </trkpt>
      <trkpt lat="52.287330" lon="5.619022">
        <ele>15.037913</ele>
        <time>2026-08-25T19:24:05.322Z</time>
      </trkpt>
      <trkpt lat="52.287151" lon="5.618800">
        <ele>14.824940</ele>
        <time>2026-08-25T19:24:08.581Z</time>
      </trkpt>
      <trkpt lat="52.287044" lon="5.618638">
        <ele>14.721374</ele>
        <time>2026-08-25T19:24:10.684Z</time>
      </trkpt>
      <trkpt lat="52.286890" lon="5.618310">
        <ele>14.541760</ele>
        <time>2026-08-25T19:24:14.421Z</time>
      </trkpt>
      <trkpt lat="52.286854" lon="5.618147">
        <ele>14.466479</ele>
        <time>2026-08-25T19:24:16.033Z</time>
      </trkpt>
      <trkpt lat="52.286864" lon="5.618032">
        <ele>14.416021</ele>
        <time>2026-08-25T19:24:17.148Z</time>
      </trkpt>
      <trkpt lat="52.286973" lon="5.617251">
        <ele>14.068038</ele>
        <time>2026-08-25T19:24:24.894Z</time>
      </trkpt>
      <trkpt lat="52.286998" lon="5.616947">
        <ele>13.934793</ele>
        <time>2026-08-25T19:24:27.885Z</time>
      </trkpt>
      <trkpt lat="52.286966" lon="5.616599">
        <ele>13.781925</ele>
        <time>2026-08-25T19:24:31.301Z</time>
      </trkpt>
      <trkpt lat="52.286851" lon="5.616276">
        <ele>13.619578</ele>
        <time>2026-08-25T19:24:34.908Z</time>
      </trkpt>
      <trkpt lat="52.286799" lon="5.616125">
        <ele>13.569124</ele>
        <time>2026-08-25T19:24:36.578Z</time>
      </trkpt>
      <trkpt lat="52.286772" lon="5.615936">
        <ele>13.525815</ele>
        <time>2026-08-25T19:24:38.448Z</time>
      </trkpt>
      <trkpt lat="52.286784" lon="5.615709">
        <ele>13.474973</ele>
        <time>2026-08-25T19:24:40.684Z</time>
      </trkpt>
      <trkpt lat="52.286899" lon="5.614979">
        <ele>13.306764</ele>
        <time>2026-08-25T19:24:48.291Z</time>
      </trkpt>
      <trkpt lat="52.286927" lon="5.614590">
        <ele>13.219362</ele>
        <time>2026-08-25T19:24:52.222Z</time>
      </trkpt>
      <trkpt lat="52.286991" lon="5.614340">
        <ele>13.158889</ele>
        <time>2026-08-25T19:24:54.843Z</time>
      </trkpt>
      <trkpt lat="52.287067" lon="5.614205">
        <ele>13.117949</ele>
        <time>2026-08-25T19:24:56.583Z</time>
      </trkpt>
      <trkpt lat="52.287160" lon="5.614142">
        <ele>13.081226</ele>
        <time>2026-08-25T19:24:58.181Z</time>
      </trkpt>
      <trkpt lat="52.287191" lon="5.614123">
        <ele>13.069149</ele>
        <time>2026-08-25T19:24:58.711Z</time>
      </trkpt>
      <trkpt lat="52.287316" lon="5.614027">
        <ele>13.018770</ele>
        <time>2026-08-25T19:25:00.947Z</time>
      </trkpt>
      <trkpt lat="52.287409" lon="5.613770">
        <ele>12.952140</ele>
        <time>2026-08-25T19:25:03.922Z</time>
      </trkpt>
      <trkpt lat="52.287544" lon="5.613229">
        <ele>12.812056</ele>
        <time>2026-08-25T19:25:09.727Z</time>
      </trkpt>
      <trkpt lat="52.287621" lon="5.612970">
        <ele>12.742489</ele>
        <time>2026-08-25T19:25:12.590Z</time>
      </trkpt>
      <trkpt lat="52.287664" lon="5.612762">
        <ele>12.689449</ele>
        <time>2026-08-25T19:25:14.770Z</time>
      </trkpt>
      <trkpt lat="52.287705" lon="5.612625">
        <ele>12.652604</ele>
        <time>2026-08-25T19:25:16.307Z</time>
      </trkpt>
      <trkpt lat="52.287946" lon="5.612056">
        <ele>12.485411</ele>
        <time>2026-08-25T19:25:23.115Z</time>
      </trkpt>
      <trkpt lat="52.288040" lon="5.611650">
        <ele>12.380540</ele>
        <time>2026-08-25T19:25:27.378Z</time>
      </trkpt>
      <trkpt lat="52.288677" lon="5.609668">
        <ele>11.825256</ele>
        <time>2026-08-25T19:25:49.190Z</time>
      </trkpt>
      <trkpt lat="52.288890" lon="5.609081">
        <ele>11.654273</ele>
        <time>2026-08-25T19:25:55.862Z</time>
      </trkpt>
      <trkpt lat="52.288935" lon="5.608968">
        <ele>11.620493</ele>
        <time>2026-08-25T19:25:57.170Z</time>
      </trkpt>
      <trkpt lat="52.289007" lon="5.608778">
        <ele>11.564501</ele>
        <time>2026-08-25T19:25:59.384Z</time>
      </trkpt>
      <trkpt lat="52.289091" lon="5.608544">
        <ele>11.496530</ele>
        <time>2026-08-25T19:26:02.081Z</time>
      </trkpt>
      <trkpt lat="52.289113" lon="5.608484">
        <ele>11.477822</ele>
        <time>2026-08-25T19:26:02.786Z</time>
      </trkpt>
      <trkpt lat="52.289169" lon="5.608358">
        <ele>11.435314</ele>
        <time>2026-08-25T19:26:04.332Z</time>
      </trkpt>
      <trkpt lat="52.289362" lon="5.607645">
        <ele>11.222516</ele>
        <time>2026-08-25T19:26:12.131Z</time>
      </trkpt>
      <trkpt lat="52.289448" lon="5.607473">
        <ele>11.161885</ele>
        <time>2026-08-25T19:26:14.359Z</time>
      </trkpt>
      <trkpt lat="52.289836" lon="5.606883">
        <ele>10.925453</ele>
        <time>2026-08-25T19:26:22.905Z</time>
      </trkpt>
      <trkpt lat="52.290181" lon="5.606262">
        <ele>10.696496</ele>
        <time>2026-08-25T19:26:30.892Z</time>
      </trkpt>
      <trkpt lat="52.290162" lon="5.606247">
        <ele>10.684981</ele>
        <time>2026-08-25T19:26:31.255Z</time>
      </trkpt>
      <trkpt lat="52.289927" lon="5.605972">
        <ele>10.452186</ele>
        <time>2026-08-25T19:26:36.225Z</time>
      </trkpt>
      <trkpt lat="52.289849" lon="5.605770">
        <ele>10.334484</ele>
        <time>2026-08-25T19:26:38.714Z</time>
      </trkpt>
      <trkpt lat="52.289817" lon="5.605546">
        <ele>10.221145</ele>
        <time>2026-08-25T19:26:41.090Z</time>
      </trkpt>
      <trkpt lat="52.289839" lon="5.605374">
        <ele>10.134564</ele>
        <time>2026-08-25T19:26:42.909Z</time>
      </trkpt>
      <trkpt lat="52.289850" lon="5.605293">
        <ele>10.093683</ele>
        <time>2026-08-25T19:26:43.764Z</time>
      </trkpt>
      <trkpt lat="52.289863" lon="5.605122">
        <ele>10.008780</ele>
        <time>2026-08-25T19:26:45.537Z</time>
      </trkpt>
      <trkpt lat="52.289853" lon="5.605086">
        <ele>9.989298</ele>
        <time>2026-08-25T19:26:45.934Z</time>
      </trkpt>
      <trkpt lat="52.289485" lon="5.604753">
        <ele>9.650485</ele>
        <time>2026-08-25T19:26:52.994Z</time>
      </trkpt>
      <trkpt lat="52.288604" lon="5.603957">
        <ele>9.214854</ele>
        <time>2026-08-25T19:27:10.834Z</time>
      </trkpt>
      <trkpt lat="52.285031" lon="5.600856">
        <ele>8.951994</ele>
        <time>2026-08-25T19:28:29.047Z</time>
      </trkpt>
      <trkpt lat="52.283479" lon="5.599420">
        <ele>8.728626</ele>
        <time>2026-08-25T19:29:02.037Z</time>
      </trkpt>
      <trkpt lat="52.282803" lon="5.598746">
        <ele>8.616216</ele>
        <time>2026-08-25T19:29:16.945Z</time>
      </trkpt>
      <trkpt lat="52.281992" lon="5.597869">
        <ele>8.903387</ele>
        <time>2026-08-25T19:29:36.683Z</time>
      </trkpt>
      <trkpt lat="52.281868" lon="5.597735">
        <ele>8.952799</ele>
        <time>2026-08-25T19:29:39.819Z</time>
      </trkpt>
      <trkpt lat="52.281843" lon="5.597700">
        <ele>8.963741</ele>
        <time>2026-08-25T19:29:40.528Z</time>
      </trkpt>
      <trkpt lat="52.281696" lon="5.597546">
        <ele>9.021779</ele>
        <time>2026-08-25T19:29:44.230Z</time>
      </trkpt>
      <trkpt lat="52.281332" lon="5.597044">
        <ele>9.180088</ele>
        <time>2026-08-25T19:30:02.760Z</time>
      </trkpt>
      <trkpt lat="52.280980" lon="5.596682">
        <ele>9.506353</ele>
        <time>2026-08-25T19:30:19.307Z</time>
      </trkpt>
      <trkpt lat="52.280563" lon="5.596227">
        <ele>9.945449</ele>
        <time>2026-08-25T19:30:39.513Z</time>
      </trkpt>
      <trkpt lat="52.280361" lon="5.596030">
        <ele>10.151454</ele>
        <time>2026-08-25T19:30:49.161Z</time>
      </trkpt>
      <trkpt lat="52.280152" lon="5.595967">
        <ele>10.337579</ele>
        <time>2026-08-25T19:30:57.965Z</time>
      </trkpt>
      <trkpt lat="52.279632" lon="5.596023">
        <ele>10.786118</ele>
        <time>2026-08-25T19:31:20.270Z</time>
      </trkpt>
      <trkpt lat="52.279096" lon="5.596231">
        <ele>11.023236</ele>
        <time>2026-08-25T19:31:43.602Z</time>
      </trkpt>
      <trkpt lat="52.278597" lon="5.596424">
        <ele>11.243946</ele>
        <time>2026-08-25T19:32:04.027Z</time>
      </trkpt>
      <trkpt lat="52.278362" lon="5.595385">
        <ele>11.535654</ele>
        <time>2026-08-25T19:32:16.815Z</time>
      </trkpt>
      <trkpt lat="52.278264" lon="5.593752">
        <ele>10.926551</ele>
        <time>2026-08-25T19:32:34.244Z</time>
      </trkpt>
      <trkpt lat="52.278252" lon="5.593515">
        <ele>10.832077</ele>
        <time>2026-08-25T19:32:37.311Z</time>
      </trkpt>
      <trkpt lat="52.278191" lon="5.593476">
        <ele>10.789546</ele>
        <time>2026-08-25T19:32:38.476Z</time>
      </trkpt>
      <trkpt lat="52.278168" lon="5.593461">
        <ele>10.773467</ele>
        <time>2026-08-25T19:32:38.926Z</time>
      </trkpt>
      <trkpt lat="52.278000" lon="5.593211">
        <ele>10.625942</ele>
        <time>2026-08-25T19:32:42.976Z</time>
      </trkpt>
      <trkpt lat="52.277957" lon="5.593203">
        <ele>10.597841</ele>
        <time>2026-08-25T19:32:44.535Z</time>
      </trkpt>
      <trkpt lat="52.277772" lon="5.593088">
        <ele>10.469323</ele>
        <time>2026-08-25T19:32:48.092Z</time>
      </trkpt>
      <trkpt lat="52.277178" lon="5.592220">
        <ele>10.076907</ele>
        <time>2026-08-25T19:33:02.887Z</time>
      </trkpt>
      <trkpt lat="52.276936" lon="5.591906">
        <ele>9.934192</ele>
        <time>2026-08-25T19:33:08.644Z</time>
      </trkpt>
      <trkpt lat="52.276861" lon="5.591880">
        <ele>9.898781</ele>
        <time>2026-08-25T19:33:10.056Z</time>
      </trkpt>
      <trkpt lat="52.276634" lon="5.592139">
        <ele>9.770914</ele>
        <time>2026-08-25T19:33:15.207Z</time>
      </trkpt>
      <trkpt lat="52.276566" lon="5.592367">
        <ele>9.699234</ele>
        <time>2026-08-25T19:33:18.117Z</time>
      </trkpt>
      <trkpt lat="52.276232" lon="5.592584">
        <ele>9.550805</ele>
        <time>2026-08-25T19:33:24.940Z</time>
      </trkpt>
      <trkpt lat="52.275955" lon="5.592621">
        <ele>9.530760</ele>
        <time>2026-08-25T19:33:30.277Z</time>
      </trkpt>
      <trkpt lat="52.274222" lon="5.592529">
        <ele>9.521318</ele>
        <time>2026-08-25T19:34:04.494Z</time>
      </trkpt>
      <trkpt lat="52.274159" lon="5.592944">
        <ele>9.619552</ele>
        <time>2026-08-25T19:34:10.012Z</time>
      </trkpt>
      <trkpt lat="52.274074" lon="5.593450">
        <ele>9.740103</ele>
        <time>2026-08-25T19:34:16.901Z</time>
      </trkpt>
      <trkpt lat="52.274026" lon="5.593581">
        <ele>9.775183</ele>
        <time>2026-08-25T19:34:18.921Z</time>
      </trkpt>
      <trkpt lat="52.273866" lon="5.593722">
        <ele>9.843435</ele>
        <time>2026-08-25T19:34:22.899Z</time>
      </trkpt>
      <trkpt lat="52.273545" lon="5.595048">
        <ele>10.243347</ele>
        <time>2026-08-25T19:34:42.485Z</time>
      </trkpt>
      <trkpt lat="52.273438" lon="5.595354">
        <ele>10.406324</ele>
        <time>2026-08-25T19:34:47.374Z</time>
      </trkpt>
      <trkpt lat="52.273356" lon="5.595468">
        <ele>10.487683</ele>
        <time>2026-08-25T19:34:49.857Z</time>
      </trkpt>
      <trkpt lat="52.273299" lon="5.595619">
        <ele>10.569727</ele>
        <time>2026-08-25T19:34:52.369Z</time>
      </trkpt>
      <trkpt lat="52.273121" lon="5.595738">
        <ele>10.715067</ele>
        <time>2026-08-25T19:34:56.860Z</time>
      </trkpt>
      <trkpt lat="52.272589" lon="5.596857">
        <ele>11.370358</ele>
        <time>2026-08-25T19:35:17.595Z</time>
      </trkpt>
      <trkpt lat="52.272259" lon="5.597083">
        <ele>11.578175</ele>
        <time>2026-08-25T19:35:26.086Z</time>
      </trkpt>
      <trkpt lat="52.272080" lon="5.597270">
        <ele>11.683460</ele>
        <time>2026-08-25T19:35:30.995Z</time>
      </trkpt>
      <trkpt lat="52.271546" lon="5.598141">
        <ele>12.057357</ele>
        <time>2026-08-25T19:35:47.267Z</time>
      </trkpt>
      <trkpt lat="52.271478" lon="5.598109">
        <ele>12.092425</ele>
        <time>2026-08-25T19:35:48.746Z</time>
      </trkpt>
      <trkpt lat="52.271490" lon="5.598029">
        <ele>12.117404</ele>
        <time>2026-08-25T19:35:49.675Z</time>
      </trkpt>
      <trkpt lat="52.271387" lon="5.597980">
        <ele>12.170567</ele>
        <time>2026-08-25T19:35:52.278Z</time>
      </trkpt>
      <trkpt lat="52.271301" lon="5.598042">
        <ele>12.217150</ele>
        <time>2026-08-25T19:35:54.208Z</time>
      </trkpt>
      <trkpt lat="52.270974" lon="5.598095">
        <ele>12.383134</ele>
        <time>2026-08-25T19:36:00.892Z</time>
      </trkpt>
      <trkpt lat="52.270872" lon="5.598154">
        <ele>12.442420</ele>
        <time>2026-08-25T19:36:03.133Z</time>
      </trkpt>
      <trkpt lat="52.270001" lon="5.598836">
        <ele>12.971618</ele>
        <time>2026-08-25T19:36:23.991Z</time>
      </trkpt>
      <trkpt lat="52.269279" lon="5.599531">
        <ele>13.398438</ele>
        <time>2026-08-25T19:36:43.039Z</time>
      </trkpt>
      <trkpt lat="52.268240" lon="5.600466">
        <ele>13.827073</ele>
        <time>2026-08-25T19:37:07.968Z</time>
      </trkpt>
      <trkpt lat="52.268200" lon="5.600476">
        <ele>13.841696</ele>
        <time>2026-08-25T19:37:08.774Z</time>
      </trkpt>
      <trkpt lat="52.267741" lon="5.600275">
        <ele>13.969578</ele>
        <time>2026-08-25T19:37:18.024Z</time>
      </trkpt>
      <trkpt lat="52.267500" lon="5.600507">
        <ele>13.910109</ele>
        <time>2026-08-25T19:37:23.522Z</time>
      </trkpt>
      <trkpt lat="52.267410" lon="5.600642">
        <ele>13.884134</ele>
        <time>2026-08-25T19:37:25.882Z</time>
      </trkpt>
      <trkpt lat="52.267204" lon="5.601342">
        <ele>13.783072</ele>
        <time>2026-08-25T19:37:36.507Z</time>
      </trkpt>
      <trkpt lat="52.266906" lon="5.601701">
        <ele>13.704357</ele>
        <time>2026-08-25T19:37:44.690Z</time>
      </trkpt>
      <trkpt lat="52.266701" lon="5.601906">
        <ele>13.653258</ele>
        <time>2026-08-25T19:37:49.947Z</time>
      </trkpt>
      <trkpt lat="52.266604" lon="5.602003">
        <ele>13.629080</ele>
        <time>2026-08-25T19:37:52.438Z</time>
      </trkpt>
      <trkpt lat="52.266139" lon="5.601940">
        <ele>13.518842</ele>
        <time>2026-08-25T19:38:00.306Z</time>
      </trkpt>
      <trkpt lat="52.265927" lon="5.601998">
        <ele>13.466284</ele>
        <time>2026-08-25T19:38:03.847Z</time>
      </trkpt>
      <trkpt lat="52.265619" lon="5.602140">
        <ele>13.388033</ele>
        <time>2026-08-25T19:38:09.079Z</time>
      </trkpt>
      <trkpt lat="52.265578" lon="5.601873">
        <ele>13.346839</ele>
        <time>2026-08-25T19:38:12.888Z</time>
      </trkpt>
      <trkpt lat="52.265548" lon="5.601800">
        <ele>13.333681</ele>
        <time>2026-08-25T19:38:14.101Z</time>
      </trkpt>
      <trkpt lat="52.265459" lon="5.601719">
        <ele>13.308771</ele>
        <time>2026-08-25T19:38:16.406Z</time>
      </trkpt>
      <trkpt lat="52.265383" lon="5.601694">
        <ele>13.289815</ele>
        <time>2026-08-25T19:38:18.179Z</time>
      </trkpt>
      <trkpt lat="52.265162" lon="5.601614">
        <ele>13.234467</ele>
        <time>2026-08-25T19:38:23.287Z</time>
      </trkpt>
      <trkpt lat="52.264949" lon="5.601471">
        <ele>13.178160</ele>
        <time>2026-08-25T19:38:27.627Z</time>
      </trkpt>
      <trkpt lat="52.264157" lon="5.600820">
        <ele>12.826120</ele>
        <time>2026-08-25T19:38:43.709Z</time>
      </trkpt>
      <trkpt lat="52.263910" lon="5.600618">
        <ele>12.713411</ele>
        <time>2026-08-25T19:38:48.629Z</time>
      </trkpt>
      <trkpt lat="52.264304" lon="5.597918">
        <ele>11.966491</ele>
        <time>2026-08-25T19:39:19.032Z</time>
      </trkpt>
      <trkpt lat="52.264294" lon="5.597026">
        <ele>11.714455</ele>
        <time>2026-08-25T19:39:28.835Z</time>
      </trkpt>
      <trkpt lat="52.264588" lon="5.596666">
        <ele>11.586727</ele>
        <time>2026-08-25T19:39:41.995Z</time>
      </trkpt>
      <trkpt lat="52.265355" lon="5.595832">
        <ele>11.487753</ele>
        <time>2026-08-25T19:40:15.594Z</time>
      </trkpt>
      <trkpt lat="52.265924" lon="5.595010">
        <ele>11.406209</ele>
        <time>2026-08-25T19:40:43.921Z</time>
      </trkpt>
      <trkpt lat="52.266326" lon="5.594185">
        <ele>11.420945</ele>
        <time>2026-08-25T19:41:08.559Z</time>
      </trkpt>
      <trkpt lat="52.266734" lon="5.592784">
        <ele>11.442625</ele>
        <time>2026-08-25T19:41:44.180Z</time>
      </trkpt>
      <trkpt lat="52.266797" lon="5.592624">
        <ele>11.445283</ele>
        <time>2026-08-25T19:41:48.457Z</time>
      </trkpt>
      <trkpt lat="52.266899" lon="5.592517">
        <ele>11.419345</ele>
        <time>2026-08-25T19:41:52.853Z</time>
      </trkpt>
      <trkpt lat="52.267277" lon="5.592515">
        <ele>11.111341</ele>
        <time>2026-08-25T19:42:06.326Z</time>
      </trkpt>
      <trkpt lat="52.267887" lon="5.592298">
        <ele>10.602658</ele>
        <time>2026-08-25T19:42:28.033Z</time>
      </trkpt>
      <trkpt lat="52.267981" lon="5.592218">
        <ele>10.516300</ele>
        <time>2026-08-25T19:42:29.802Z</time>
      </trkpt>
      <trkpt lat="52.268075" lon="5.591995">
        <ele>10.381276</ele>
        <time>2026-08-25T19:42:32.527Z</time>
      </trkpt>
      <trkpt lat="52.268594" lon="5.588243">
        <ele>8.299723</ele>
        <time>2026-08-25T19:43:11.989Z</time>
      </trkpt>
      <trkpt lat="52.268767" lon="5.586941">
        <ele>8.317628</ele>
        <time>2026-08-25T19:43:28.344Z</time>
      </trkpt>
      <trkpt lat="52.268907" lon="5.585568">
        <ele>8.336335</ele>
        <time>2026-08-25T19:43:46.729Z</time>
      </trkpt>
      <trkpt lat="52.269497" lon="5.584079">
        <ele>8.331089</ele>
        <time>2026-08-25T19:44:07.545Z</time>
      </trkpt>
      <trkpt lat="52.269599" lon="5.583822">
        <ele>8.329855</ele>
        <time>2026-08-25T19:44:11.194Z</time>
      </trkpt>
      <trkpt lat="52.268762" lon="5.582690">
        <ele>8.623497</ele>
        <time>2026-08-25T19:44:33.573Z</time>
      </trkpt>
      <trkpt lat="52.268659" lon="5.582597">
        <ele>8.694332</ele>
        <time>2026-08-25T19:44:36.210Z</time>
      </trkpt>
      <trkpt lat="52.268546" lon="5.582531">
        <ele>8.766566</ele>
        <time>2026-08-25T19:44:38.971Z</time>
      </trkpt>
      <trkpt lat="52.267173" lon="5.582324">
        <ele>9.505368</ele>
        <time>2026-08-25T19:45:11.650Z</time>
      </trkpt>
      <trkpt lat="52.266884" lon="5.582281">
        <ele>9.595292</ele>
        <time>2026-08-25T19:45:18.449Z</time>
      </trkpt>
      <trkpt lat="52.266910" lon="5.582120">
        <ele>9.626869</ele>
        <time>2026-08-25T19:45:20.775Z</time>
      </trkpt>
      <trkpt lat="52.267388" lon="5.580340">
        <ele>9.866397</ele>
        <time>2026-08-25T19:45:44.963Z</time>
      </trkpt>
      <trkpt lat="52.267390" lon="5.580243">
        <ele>9.804265</ele>
        <time>2026-08-25T19:45:46.084Z</time>
      </trkpt>
      <trkpt lat="52.267345" lon="5.580131">
        <ele>9.718495</ele>
        <time>2026-08-25T19:45:47.636Z</time>
      </trkpt>
      <trkpt lat="52.266898" lon="5.579581">
        <ele>9.133166</ele>
        <time>2026-08-25T19:45:57.627Z</time>
      </trkpt>
      <trkpt lat="52.266472" lon="5.579058">
        <ele>8.575780</ele>
        <time>2026-08-25T19:46:06.603Z</time>
      </trkpt>
      <trkpt lat="52.266375" lon="5.578909">
        <ele>8.436516</ele>
        <time>2026-08-25T19:46:08.801Z</time>
      </trkpt>
      <trkpt lat="52.266340" lon="5.578803">
        <ele>8.359410</ele>
        <time>2026-08-25T19:46:10.013Z</time>
      </trkpt>
      <trkpt lat="52.266321" lon="5.578671">
        <ele>8.272601</ele>
        <time>2026-08-25T19:46:11.370Z</time>
      </trkpt>
      <trkpt lat="52.266325" lon="5.578558">
        <ele>8.200139</ele>
        <time>2026-08-25T19:46:12.520Z</time>
      </trkpt>
      <trkpt lat="52.265578" lon="5.578225">
        <ele>7.420108</ele>
        <time>2026-08-25T19:46:23.520Z</time>
      </trkpt>
      <trkpt lat="52.265469" lon="5.577988">
        <ele>7.238497</ele>
        <time>2026-08-25T19:46:26.168Z</time>
      </trkpt>
      <trkpt lat="52.265421" lon="5.577940">
        <ele>7.182167</ele>
        <time>2026-08-25T19:46:26.992Z</time>
      </trkpt>
      <trkpt lat="52.265342" lon="5.577910">
        <ele>7.100984</ele>
        <time>2026-08-25T19:46:28.202Z</time>
      </trkpt>
      <trkpt lat="52.265227" lon="5.577963">
        <ele>6.981382</ele>
        <time>2026-08-25T19:46:30.008Z</time>
      </trkpt>
      <trkpt lat="52.265177" lon="5.578036">
        <ele>6.914265</ele>
        <time>2026-08-25T19:46:31.020Z</time>
      </trkpt>
      <trkpt lat="52.264652" lon="5.577807">
        <ele>6.370358</ele>
        <time>2026-08-25T19:46:39.488Z</time>
      </trkpt>
      <trkpt lat="52.264451" lon="5.577671">
        <ele>6.277686</ele>
        <time>2026-08-25T19:46:43.000Z</time>
      </trkpt>
      <trkpt lat="52.264281" lon="5.577505">
        <ele>6.267985</ele>
        <time>2026-08-25T19:46:46.298Z</time>
      </trkpt>
      <trkpt lat="52.264075" lon="5.577246">
        <ele>6.255252</ele>
        <time>2026-08-25T19:46:50.649Z</time>
      </trkpt>
      <trkpt lat="52.262275" lon="5.574367">
        <ele>6.305584</ele>
        <time>2026-08-25T19:47:34.567Z</time>
      </trkpt>
      <trkpt lat="52.261949" lon="5.574003">
        <ele>6.338618</ele>
        <time>2026-08-25T19:47:41.681Z</time>
      </trkpt>
      <trkpt lat="52.261788" lon="5.573869">
        <ele>6.345302</ele>
        <time>2026-08-25T19:47:44.921Z</time>
      </trkpt>
      <trkpt lat="52.261438" lon="5.573667">
        <ele>6.340177</ele>
        <time>2026-08-25T19:47:51.561Z</time>
      </trkpt>
      <trkpt lat="52.260275" lon="5.573012">
        <ele>6.323192</ele>
        <time>2026-08-25T19:48:12.550Z</time>
      </trkpt>
      <trkpt lat="52.260289" lon="5.572925">
        <ele>6.322432</ele>
        <time>2026-08-25T19:48:13.469Z</time>
      </trkpt>
      <trkpt lat="52.260342" lon="5.572571">
        <ele>6.268160</ele>
        <time>2026-08-25T19:48:17.112Z</time>
      </trkpt>
      <trkpt lat="52.260442" lon="5.571871">
        <ele>6.127504</ele>
        <time>2026-08-25T19:48:24.273Z</time>
      </trkpt>
      <trkpt lat="52.260470" lon="5.571649">
        <ele>6.083150</ele>
        <time>2026-08-25T19:48:26.512Z</time>
      </trkpt>
      <trkpt lat="52.260565" lon="5.570949">
        <ele>5.942849</ele>
        <time>2026-08-25T19:48:33.545Z</time>
      </trkpt>
      <trkpt lat="52.260781" lon="5.569365">
        <ele>5.663438</ele>
        <time>2026-08-25T19:48:49.437Z</time>
      </trkpt>
      <trkpt lat="52.260882" lon="5.568770">
        <ele>5.580594</ele>
        <time>2026-08-25T19:48:55.583Z</time>
      </trkpt>
      <trkpt lat="52.262044" lon="5.560588">
        <ele>4.487335</ele>
        <time>2026-08-25T19:50:21.044Z</time>
      </trkpt>
      <trkpt lat="52.261342" lon="5.560159">
        <ele>4.227337</ele>
        <time>2026-08-25T19:50:37.371Z</time>
      </trkpt>
      <trkpt lat="52.261078" lon="5.559995">
        <ele>4.129360</ele>
        <time>2026-08-25T19:50:42.410Z</time>
      </trkpt>
      <trkpt lat="52.258117" lon="5.558166">
        <ele>3.741103</ele>
        <time>2026-08-25T19:51:42.210Z</time>
      </trkpt>
      <trkpt lat="52.255010" lon="5.556296">
        <ele>3.581650</ele>
        <time>2026-08-25T19:52:45.714Z</time>
      </trkpt>
      <trkpt lat="52.254881" lon="5.556219">
        <ele>3.561743</ele>
        <time>2026-08-25T19:52:48.254Z</time>
      </trkpt>
      <trkpt lat="52.255243" lon="5.554804">
        <ele>3.413964</ele>
        <time>2026-08-25T19:53:09.172Z</time>
      </trkpt>
      <trkpt lat="52.256048" lon="5.551373">
        <ele>2.858228</ele>
        <time>2026-08-25T19:53:59.715Z</time>
      </trkpt>
      <trkpt lat="52.256222" lon="5.550792">
        <ele>2.788159</ele>
        <time>2026-08-25T19:54:08.729Z</time>
      </trkpt>
      <trkpt lat="52.256980" lon="5.548508">
        <ele>2.463163</ele>
        <time>2026-08-25T19:54:44.656Z</time>
      </trkpt>
      <trkpt lat="52.257181" lon="5.547789">
        <ele>2.348765</ele>
        <time>2026-08-25T19:54:55.456Z</time>
      </trkpt>
      <trkpt lat="52.257250" lon="5.547500">
        <ele>2.303869</ele>
        <time>2026-08-25T19:54:59.714Z</time>
      </trkpt>
      <trkpt lat="52.257451" lon="5.546275">
        <ele>2.171513</ele>
        <time>2026-08-25T19:55:17.277Z</time>
      </trkpt>
      <trkpt lat="52.257688" lon="5.544798">
        <ele>2.075240</ele>
        <time>2026-08-25T19:55:38.839Z</time>
      </trkpt>
      <trkpt lat="52.258037" lon="5.542540">
        <ele>1.780939</ele>
        <time>2026-08-25T19:56:11.378Z</time>
      </trkpt>
      <trkpt lat="52.257940" lon="5.541890">
        <ele>1.674864</ele>
        <time>2026-08-25T19:56:20.493Z</time>
      </trkpt>
      <trkpt lat="52.257906" lon="5.541724">
        <ele>1.647110</ele>
        <time>2026-08-25T19:56:22.219Z</time>
      </trkpt>
      <trkpt lat="52.257655" lon="5.539479">
        <ele>1.143356</ele>
        <time>2026-08-25T19:56:44.378Z</time>
      </trkpt>
      <trkpt lat="52.257591" lon="5.538901">
        <ele>1.002094</ele>
        <time>2026-08-25T19:56:50.147Z</time>
      </trkpt>
      <trkpt lat="52.257583" lon="5.538816">
        <ele>0.981412</ele>
        <time>2026-08-25T19:56:51.006Z</time>
      </trkpt>
      <trkpt lat="52.257477" lon="5.538083">
        <ele>0.847379</ele>
        <time>2026-08-25T19:57:01.331Z</time>
      </trkpt>
      <trkpt lat="52.257357" lon="5.537864">
        <ele>0.839598</ele>
        <time>2026-08-25T19:57:05.401Z</time>
      </trkpt>
      <trkpt lat="52.255510" lon="5.537377">
        <ele>0.798594</ele>
        <time>2026-08-25T19:57:48.792Z</time>
      </trkpt>
      <trkpt lat="52.254861" lon="5.537264">
        <ele>0.837691</ele>
        <time>2026-08-25T19:58:04.243Z</time>
      </trkpt>
      <trkpt lat="52.254536" lon="5.537242">
        <ele>0.857175</ele>
        <time>2026-08-25T19:58:11.922Z</time>
      </trkpt>
      <trkpt lat="52.254015" lon="5.537266">
        <ele>0.888058</ele>
        <time>2026-08-25T19:58:24.194Z</time>
      </trkpt>
      <trkpt lat="52.253720" lon="5.537230">
        <ele>0.904633</ele>
        <time>2026-08-25T19:58:31.131Z</time>
      </trkpt>
      <trkpt lat="52.252839" lon="5.536954">
        <ele>0.954895</ele>
        <time>2026-08-25T19:58:52.029Z</time>
      </trkpt>
      <trkpt lat="52.251523" lon="5.536694">
        <ele>0.965852</ele>
        <time>2026-08-25T19:59:23.256Z</time>
      </trkpt>
      <trkpt lat="52.251534" lon="5.536604">
        <ele>0.964594</ele>
        <time>2026-08-25T19:59:24.335Z</time>
      </trkpt>
      <trkpt lat="52.251672" lon="5.536257">
        <ele>0.958918</ele>
        <time>2026-08-25T19:59:29.161Z</time>
      </trkpt>
      <trkpt lat="52.251996" lon="5.535444">
        <ele>0.945611</ele>
        <time>2026-08-25T19:59:40.270Z</time>
      </trkpt>
      <trkpt lat="52.252234" lon="5.534456">
        <ele>0.760671</ele>
        <time>2026-08-25T19:59:52.192Z</time>
      </trkpt>
      <trkpt lat="52.253116" lon="5.530603">
        <ele>0.010113</ele>
        <time>2026-08-25T20:00:38.160Z</time>
      </trkpt>
      <trkpt lat="52.253566" lon="5.528747">
        <ele>-0.166386</ele>
        <time>2026-08-25T20:01:01.297Z</time>
      </trkpt>
      <trkpt lat="52.253744" lon="5.527893">
        <ele>-0.194685</ele>
        <time>2026-08-25T20:01:11.887Z</time>
      </trkpt>
      <trkpt lat="52.253942" lon="5.526719">
        <ele>-0.239832</ele>
        <time>2026-08-25T20:01:26.124Z</time>
      </trkpt>
      <trkpt lat="52.254051" lon="5.525766">
        <ele>-0.290453</ele>
        <time>2026-08-25T20:01:37.281Z</time>
      </trkpt>
      <trkpt lat="52.254196" lon="5.524046">
        <ele>-0.371163</ele>
        <time>2026-08-25T20:01:57.375Z</time>
      </trkpt>
      <trkpt lat="52.254236" lon="5.523264">
        <ele>-0.334753</ele>
        <time>2026-08-25T20:02:06.573Z</time>
      </trkpt>
      <trkpt lat="52.254213" lon="5.522595">
        <ele>-0.303665</ele>
        <time>2026-08-25T20:02:14.574Z</time>
      </trkpt>
      <trkpt lat="52.254260" lon="5.521926">
        <ele>-0.272421</ele>
        <time>2026-08-25T20:02:22.786Z</time>
      </trkpt>
      <trkpt lat="52.254215" lon="5.521655">
        <ele>-0.259393</ele>
        <time>2026-08-25T20:02:26.233Z</time>
      </trkpt>
      <trkpt lat="52.253991" lon="5.520833">
        <ele>-0.173321</ele>
        <time>2026-08-25T20:02:37.227Z</time>
      </trkpt>
      <trkpt lat="52.251570" lon="5.520521">
        <ele>0.388887</ele>
        <time>2026-08-25T20:03:56.902Z</time>
      </trkpt>
      <trkpt lat="52.251455" lon="5.520561">
        <ele>0.416514</ele>
        <time>2026-08-25T20:04:00.786Z</time>
      </trkpt>
      <trkpt lat="52.251426" lon="5.520674">
        <ele>0.434139</ele>
        <time>2026-08-25T20:04:03.240Z</time>
      </trkpt>
      <trkpt lat="52.251282" lon="5.521192">
        <ele>0.515973</ele>
        <time>2026-08-25T20:04:14.649Z</time>
      </trkpt>
      <trkpt lat="52.250883" lon="5.522546">
        <ele>0.853550</ele>
        <time>2026-08-25T20:04:44.770Z</time>
      </trkpt>
      <trkpt lat="52.250836" lon="5.522511">
        <ele>0.876488</ele>
        <time>2026-08-25T20:04:46.509Z</time>
      </trkpt>
      <trkpt lat="52.250833" lon="5.522617">
        <ele>0.905338</ele>
        <time>2026-08-25T20:04:47.899Z</time>
      </trkpt>
      <trkpt lat="52.250665" lon="5.523196">
        <ele>1.079536</ele>
        <time>2026-08-25T20:04:56.509Z</time>
      </trkpt>
      <trkpt lat="52.250459" lon="5.523918">
        <ele>1.296099</ele>
        <time>2026-08-25T20:05:07.240Z</time>
      </trkpt>
      <trkpt lat="52.250264" lon="5.524585">
        <ele>1.454896</ele>
        <time>2026-08-25T20:05:17.156Z</time>
      </trkpt>
      <trkpt lat="52.249560" lon="5.526997">
        <ele>1.870125</ele>
        <time>2026-08-25T20:05:50.052Z</time>
      </trkpt>
      <trkpt lat="52.247620" lon="5.533664">
        <ele>2.121715</ele>
        <time>2026-08-25T20:07:18.018Z</time>
      </trkpt>
      <trkpt lat="52.247611" lon="5.533792">
        <ele>2.120716</ele>
        <time>2026-08-25T20:07:19.506Z</time>
      </trkpt>
      <trkpt lat="52.247599" lon="5.533836">
        <ele>2.120343</ele>
        <time>2026-08-25T20:07:20.172Z</time>
      </trkpt>
      <trkpt lat="52.247626" lon="5.533964">
        <ele>2.119293</ele>
        <time>2026-08-25T20:07:22.078Z</time>
      </trkpt>
      <trkpt lat="52.247563" lon="5.533991">
        <ele>2.118468</ele>
        <time>2026-08-25T20:07:23.166Z</time>
      </trkpt>
      <trkpt lat="52.247437" lon="5.533560">
        <ele>2.114765</ele>
        <time>2026-08-25T20:07:28.058Z</time>
      </trkpt>
      <trkpt lat="52.247384" lon="5.533605">
        <ele>2.114008</ele>
        <time>2026-08-25T20:07:29.073Z</time>
      </trkpt>
      <trkpt lat="52.247328" lon="5.533649">
        <ele>2.113221</ele>
        <time>2026-08-25T20:07:30.487Z</time>
      </trkpt>
      <trkpt lat="52.247229" lon="5.533647">
        <ele>2.111967</ele>
        <time>2026-08-25T20:07:32.721Z</time>
      </trkpt>
      <trkpt lat="52.246615" lon="5.533202">
        <ele>2.071448</ele>
        <time>2026-08-25T20:07:47.949Z</time>
      </trkpt>
      <trkpt lat="52.245920" lon="5.532630">
        <ele>2.022243</ele>
        <time>2026-08-25T20:08:05.840Z</time>
      </trkpt>
      <trkpt lat="52.245047" lon="5.531851">
        <ele>1.950372</ele>
        <time>2026-08-25T20:08:28.960Z</time>
      </trkpt>
      <trkpt lat="52.244136" lon="5.530976">
        <ele>1.867939</ele>
        <time>2026-08-25T20:08:53.167Z</time>
      </trkpt>
      <trkpt lat="52.243592" lon="5.530454">
        <ele>1.792364</ele>
        <time>2026-08-25T20:09:07.411Z</time>
      </trkpt>
      <trkpt lat="52.243486" lon="5.530683">
        <ele>1.769325</ele>
        <time>2026-08-25T20:09:11.390Z</time>
      </trkpt>
      <trkpt lat="52.243433" lon="5.530863">
        <ele>1.753296</ele>
        <time>2026-08-25T20:09:14.154Z</time>
      </trkpt>
      <trkpt lat="52.243325" lon="5.531823">
        <ele>1.674961</ele>
        <time>2026-08-25T20:09:27.732Z</time>
      </trkpt>
      <trkpt lat="52.243100" lon="5.533330">
        <ele>1.732100</ele>
        <time>2026-08-25T20:09:49.803Z</time>
      </trkpt>
      <trkpt lat="52.242763" lon="5.534891">
        <ele>1.937887</ele>
        <time>2026-08-25T20:10:14.650Z</time>
      </trkpt>
      <trkpt lat="52.242508" lon="5.535702">
        <ele>2.067457</ele>
        <time>2026-08-25T20:10:28.520Z</time>
      </trkpt>
      <trkpt lat="52.241935" lon="5.537158">
        <ele>2.336934</ele>
        <time>2026-08-25T20:10:54.457Z</time>
      </trkpt>
      <trkpt lat="52.241505" lon="5.538209">
        <ele>2.480484</ele>
        <time>2026-08-25T20:11:12.619Z</time>
      </trkpt>
      <trkpt lat="52.241049" lon="5.539310">
        <ele>2.564246</ele>
        <time>2026-08-25T20:11:31.779Z</time>
      </trkpt>
      <trkpt lat="52.240896" lon="5.539810">
        <ele>2.599470</ele>
        <time>2026-08-25T20:11:39.804Z</time>
      </trkpt>
      <trkpt lat="52.240772" lon="5.540606">
        <ele>2.663549</ele>
        <time>2026-08-25T20:11:51.724Z</time>
      </trkpt>
      <trkpt lat="52.240629" lon="5.541933">
        <ele>2.796327</ele>
        <time>2026-08-25T20:12:11.664Z</time>
      </trkpt>
      <trkpt lat="52.240581" lon="5.543999">
        <ele>2.987107</ele>
        <time>2026-08-25T20:12:41.905Z</time>
      </trkpt>
      <trkpt lat="52.240465" lon="5.545190">
        <ele>3.086988</ele>
        <time>2026-08-25T20:12:59.406Z</time>
      </trkpt>
      <trkpt lat="52.240252" lon="5.546292">
        <ele>3.175858</ele>
        <time>2026-08-25T20:13:16.000Z</time>
      </trkpt>
      <trkpt lat="52.240207" lon="5.546521">
        <ele>3.189161</ele>
        <time>2026-08-25T20:13:19.474Z</time>
      </trkpt>
      <trkpt lat="52.240113" lon="5.546908">
        <ele>3.212190</ele>
        <time>2026-08-25T20:13:25.515Z</time>
      </trkpt>
      <trkpt lat="52.240045" lon="5.547039">
        <ele>3.221689</ele>
        <time>2026-08-25T20:13:28.005Z</time>
      </trkpt>
      <trkpt lat="52.239964" lon="5.547127">
        <ele>3.230477</ele>
        <time>2026-08-25T20:13:30.332Z</time>
      </trkpt>
      <trkpt lat="52.239875" lon="5.547167">
        <ele>3.238816</ele>
        <time>2026-08-25T20:13:32.535Z</time>
      </trkpt>
      <trkpt lat="52.239757" lon="5.547167">
        <ele>3.249475</ele>
        <time>2026-08-25T20:13:35.320Z</time>
      </trkpt>
      <trkpt lat="52.238798" lon="5.546938">
        <ele>3.372704</ele>
        <time>2026-08-25T20:13:57.831Z</time>
      </trkpt>
      <trkpt lat="52.238653" lon="5.546969">
        <ele>3.423787</ele>
        <time>2026-08-25T20:14:01.270Z</time>
      </trkpt>
      <trkpt lat="52.238564" lon="5.547038">
        <ele>3.458203</ele>
        <time>2026-08-25T20:14:03.590Z</time>
      </trkpt>
      <trkpt lat="52.238134" lon="5.547731">
        <ele>3.669242</ele>
        <time>2026-08-25T20:14:18.316Z</time>
      </trkpt>
      <trkpt lat="52.237720" lon="5.548140">
        <ele>3.838265</ele>
        <time>2026-08-25T20:14:30.814Z</time>
      </trkpt>
      <trkpt lat="52.237470" lon="5.548450">
        <ele>3.947919</ele>
        <time>2026-08-25T20:14:39.073Z</time>
      </trkpt>
      <trkpt lat="52.237055" lon="5.549190">
        <ele>3.991168</ele>
        <time>2026-08-25T20:14:54.871Z</time>
      </trkpt>
      <trkpt lat="52.236965" lon="5.549305">
        <ele>3.998458</ele>
        <time>2026-08-25T20:14:57.726Z</time>
      </trkpt>
      <trkpt lat="52.236780" lon="5.546670">
        <ele>4.034117</ele>
        <time>2026-08-25T20:15:24.322Z</time>
      </trkpt>
      <trkpt lat="52.236730" lon="5.546530">
        <ele>4.027963</ele>
        <time>2026-08-25T20:15:25.911Z</time>
      </trkpt>
      <trkpt lat="52.236600" lon="5.546350">
        <ele>4.017394</ele>
        <time>2026-08-25T20:15:28.667Z</time>
      </trkpt>
      <trkpt lat="52.236490" lon="5.546260">
        <ele>4.009765</ele>
        <time>2026-08-25T20:15:30.685Z</time>
      </trkpt>
      <trkpt lat="52.235990" lon="5.545990">
        <ele>3.977110</ele>
        <time>2026-08-25T20:15:39.685Z</time>
      </trkpt>
      <trkpt lat="52.235620" lon="5.545910">
        <ele>3.963425</ele>
        <time>2026-08-25T20:15:46.644Z</time>
      </trkpt>
      <trkpt lat="52.235430" lon="5.545800">
        <ele>4.006795</ele>
        <time>2026-08-25T20:15:50.573Z</time>
      </trkpt>
      <trkpt lat="52.234520" lon="5.544760">
        <ele>4.245765</ele>
        <time>2026-08-25T20:16:11.844Z</time>
      </trkpt>
      <trkpt lat="52.234360" lon="5.544420">
        <ele>4.302261</ele>
        <time>2026-08-25T20:16:16.436Z</time>
      </trkpt>
      <trkpt lat="52.234327" lon="5.544302">
        <ele>4.319353</ele>
        <time>2026-08-25T20:16:17.780Z</time>
      </trkpt>
      <trkpt lat="52.233790" lon="5.542390">
        <ele>3.918071</ele>
        <time>2026-08-25T20:16:38.214Z</time>
      </trkpt>
      <trkpt lat="52.233680" lon="5.542090">
        <ele>3.840823</ele>
        <time>2026-08-25T20:16:41.547Z</time>
      </trkpt>
      <trkpt lat="52.233060" lon="5.540730">
        <ele>3.625846</ele>
        <time>2026-08-25T20:16:58.417Z</time>
      </trkpt>
      <trkpt lat="52.232940" lon="5.540560">
        <ele>3.608656</ele>
        <time>2026-08-25T20:17:01.120Z</time>
      </trkpt>
      <trkpt lat="52.232923" lon="5.540465">
        <ele>3.602097</ele>
        <time>2026-08-25T20:17:02.163Z</time>
      </trkpt>
      <trkpt lat="52.232660" lon="5.540238">
        <ele>3.569909</ele>
        <time>2026-08-25T20:17:07.336Z</time>
      </trkpt>
      <trkpt lat="52.232537" lon="5.540050">
        <ele>3.551679</ele>
        <time>2026-08-25T20:17:10.308Z</time>
      </trkpt>
      <trkpt lat="52.232464" lon="5.539823">
        <ele>3.534688</ele>
        <time>2026-08-25T20:17:13.074Z</time>
      </trkpt>
      <trkpt lat="52.232252" lon="5.538857">
        <ele>3.486532</ele>
        <time>2026-08-25T20:17:23.847Z</time>
      </trkpt>
      <trkpt lat="52.232124" lon="5.538569">
        <ele>3.477166</ele>
        <time>2026-08-25T20:17:27.510Z</time>
      </trkpt>
      <trkpt lat="52.231921" lon="5.538224">
        <ele>3.464573</ele>
        <time>2026-08-25T20:17:32.424Z</time>
      </trkpt>
      <trkpt lat="52.231574" lon="5.537631">
        <ele>3.442985</ele>
        <time>2026-08-25T20:17:40.840Z</time>
      </trkpt>
      <trkpt lat="52.231157" lon="5.537257">
        <ele>3.422538</ele>
        <time>2026-08-25T20:17:48.820Z</time>
      </trkpt>
      <trkpt lat="52.230900" lon="5.537052">
        <ele>3.523940</ele>
        <time>2026-08-25T20:17:53.783Z</time>
      </trkpt>
      <trkpt lat="52.230800" lon="5.537014">
        <ele>3.561115</ele>
        <time>2026-08-25T20:17:55.623Z</time>
      </trkpt>
      <trkpt lat="52.230144" lon="5.536965">
        <ele>3.798879</ele>
        <time>2026-08-25T20:18:12.116Z</time>
      </trkpt>
      <trkpt lat="52.230048" lon="5.536982">
        <ele>3.833841</ele>
        <time>2026-08-25T20:18:14.618Z</time>
      </trkpt>
      <trkpt lat="52.229967" lon="5.537040">
        <ele>3.865865</ele>
        <time>2026-08-25T20:18:16.919Z</time>
      </trkpt>
      <trkpt lat="52.229910" lon="5.537210">
        <ele>3.908844</ele>
        <time>2026-08-25T20:18:19.979Z</time>
      </trkpt>
      <trkpt lat="52.229780" lon="5.538520">
        <ele>4.212893</ele>
        <time>2026-08-25T20:18:40.787Z</time>
      </trkpt>
      <trkpt lat="52.229670" lon="5.538640">
        <ele>4.264396</ele>
        <time>2026-08-25T20:18:44.144Z</time>
      </trkpt>
      <trkpt lat="52.229510" lon="5.538680">
        <ele>4.327410</ele>
        <time>2026-08-25T20:18:48.221Z</time>
      </trkpt>
      <trkpt lat="52.229360" lon="5.538610">
        <ele>4.388144</ele>
        <time>2026-08-25T20:18:52.120Z</time>
      </trkpt>
      <trkpt lat="52.228770" lon="5.537751">
        <ele>4.695896</ele>
        <time>2026-08-25T20:19:11.468Z</time>
      </trkpt>
      <trkpt lat="52.228626" lon="5.537609">
        <ele>4.761387</ele>
        <time>2026-08-25T20:19:15.554Z</time>
      </trkpt>
      <trkpt lat="52.228344" lon="5.537594">
        <ele>4.864411</ele>
        <time>2026-08-25T20:19:22.446Z</time>
      </trkpt>
      <trkpt lat="52.228240" lon="5.537673">
        <ele>4.905942</ele>
        <time>2026-08-25T20:19:25.269Z</time>
      </trkpt>
      <trkpt lat="52.228116" lon="5.537841">
        <ele>4.964285</ele>
        <time>2026-08-25T20:19:29.250Z</time>
      </trkpt>
      <trkpt lat="52.227294" lon="5.537789">
        <ele>5.262131</ele>
        <time>2026-08-25T20:19:50.054Z</time>
      </trkpt>
      <trkpt lat="52.226520" lon="5.537740">
        <ele>5.422804</ele>
        <time>2026-08-25T20:20:09.159Z</time>
      </trkpt>
      <trkpt lat="52.226230" lon="5.537640">
        <ele>5.420811</ele>
        <time>2026-08-25T20:20:16.036Z</time>
      </trkpt>
      <trkpt lat="52.225990" lon="5.537460">
        <ele>5.419034</ele>
        <time>2026-08-25T20:20:22.068Z</time>
      </trkpt>
      <trkpt lat="52.225630" lon="5.536860">
        <ele>5.415573</ele>
        <time>2026-08-25T20:20:33.733Z</time>
      </trkpt>
      <trkpt lat="52.225580" lon="5.536550">
        <ele>5.414252</ele>
        <time>2026-08-25T20:20:38.192Z</time>
      </trkpt>
      <trkpt lat="52.225572" lon="5.536351">
        <ele>5.413430</ele>
        <time>2026-08-25T20:20:40.974Z</time>
      </trkpt>
      <trkpt lat="52.225580" lon="5.536158">
        <ele>5.413925</ele>
        <time>2026-08-25T20:20:43.660Z</time>
      </trkpt>
      <trkpt lat="52.225693" lon="5.535298">
        <ele>5.428544</ele>
        <time>2026-08-25T20:20:56.010Z</time>
      </trkpt>
      <trkpt lat="52.225632" lon="5.534996">
        <ele>5.433829</ele>
        <time>2026-08-25T20:21:00.631Z</time>
      </trkpt>
      <trkpt lat="52.225482" lon="5.534620">
        <ele>5.441287</ele>
        <time>2026-08-25T20:21:07.213Z</time>
      </trkpt>
      <trkpt lat="52.225339" lon="5.534270">
        <ele>5.448280</ele>
        <time>2026-08-25T20:21:13.413Z</time>
      </trkpt>
      <trkpt lat="52.225090" lon="5.533572">
        <ele>5.461663</ele>
        <time>2026-08-25T20:21:23.161Z</time>
      </trkpt>
      <trkpt lat="52.224292" lon="5.530655">
        <ele>5.311274</ele>
        <time>2026-08-25T20:21:59.963Z</time>
      </trkpt>
      <trkpt lat="52.224206" lon="5.530263">
        <ele>5.278294</ele>
        <time>2026-08-25T20:22:04.778Z</time>
      </trkpt>
      <trkpt lat="52.224107" lon="5.529511">
        <ele>5.217371</ele>
        <time>2026-08-25T20:22:13.667Z</time>
      </trkpt>
      <trkpt lat="52.223944" lon="5.528237">
        <ele>5.114286</ele>
        <time>2026-08-25T20:22:28.665Z</time>
      </trkpt>
      <trkpt lat="52.223824" lon="5.527073">
        <ele>4.828900</ele>
        <time>2026-08-25T20:22:41.761Z</time>
      </trkpt>
      <trkpt lat="52.223789" lon="5.526735">
        <ele>4.735325</ele>
        <time>2026-08-25T20:22:46.325Z</time>
      </trkpt>
      <trkpt lat="52.223777" lon="5.526618">
        <ele>4.702943</ele>
        <time>2026-08-25T20:22:47.899Z</time>
      </trkpt>
      <trkpt lat="52.223540" lon="5.524790">
        <ele>4.202814</ele>
        <time>2026-08-25T20:23:06.032Z</time>
      </trkpt>
      <trkpt lat="52.223520" lon="5.524100">
        <ele>4.032097</ele>
        <time>2026-08-25T20:23:12.866Z</time>
      </trkpt>
      <trkpt lat="52.223550" lon="5.523790">
        <ele>3.954533</ele>
        <time>2026-08-25T20:23:15.957Z</time>
      </trkpt>
      <trkpt lat="52.223815" lon="5.522957">
        <ele>3.722561</ele>
        <time>2026-08-25T20:23:25.213Z</time>
      </trkpt>
      <trkpt lat="52.223843" lon="5.522793">
        <ele>3.680485</ele>
        <time>2026-08-25T20:23:26.898Z</time>
      </trkpt>
      <trkpt lat="52.223895" lon="5.521562">
        <ele>3.399005</ele>
        <time>2026-08-25T20:23:39.087Z</time>
      </trkpt>
      <trkpt lat="52.223964" lon="5.520899">
        <ele>3.252650</ele>
        <time>2026-08-25T20:23:45.683Z</time>
      </trkpt>
      <trkpt lat="52.224066" lon="5.519523">
        <ele>2.951009</ele>
        <time>2026-08-25T20:23:59.434Z</time>
      </trkpt>
      <trkpt lat="52.224247" lon="5.518653">
        <ele>2.896075</ele>
        <time>2026-08-25T20:24:08.740Z</time>
      </trkpt>
      <trkpt lat="52.224307" lon="5.518187">
        <ele>2.875003</ele>
        <time>2026-08-25T20:24:13.562Z</time>
      </trkpt>
      <trkpt lat="52.224364" lon="5.517418">
        <ele>2.840726</ele>
        <time>2026-08-25T20:24:21.579Z</time>
      </trkpt>
      <trkpt lat="52.224486" lon="5.516543">
        <ele>2.800152</ele>
        <time>2026-08-25T20:24:31.191Z</time>
      </trkpt>
      <trkpt lat="52.224683" lon="5.515865">
        <ele>2.753564</ele>
        <time>2026-08-25T20:24:39.382Z</time>
      </trkpt>
      <trkpt lat="52.225181" lon="5.514366">
        <ele>2.647693</ele>
        <time>2026-08-25T20:24:57.207Z</time>
      </trkpt>
      <trkpt lat="52.225268" lon="5.513990">
        <ele>2.622740</ele>
        <time>2026-08-25T20:25:01.171Z</time>
      </trkpt>
      <trkpt lat="52.225382" lon="5.512855">
        <ele>2.333905</ele>
        <time>2026-08-25T20:25:12.174Z</time>
      </trkpt>
      <trkpt lat="52.225473" lon="5.511532">
        <ele>1.992784</ele>
        <time>2026-08-25T20:25:25.050Z</time>
      </trkpt>
      <trkpt lat="52.225435" lon="5.511333">
        <ele>1.939374</ele>
        <time>2026-08-25T20:25:27.154Z</time>
      </trkpt>
      <trkpt lat="52.225332" lon="5.511024">
        <ele>1.861061</ele>
        <time>2026-08-25T20:25:30.723Z</time>
      </trkpt>
      <trkpt lat="52.225168" lon="5.510681">
        <ele>1.818002</ele>
        <time>2026-08-25T20:25:35.151Z</time>
      </trkpt>
      <trkpt lat="52.225027" lon="5.510489">
        <ele>1.788340</ele>
        <time>2026-08-25T20:25:38.198Z</time>
      </trkpt>
      <trkpt lat="52.224868" lon="5.510149">
        <ele>1.746010</ele>
        <time>2026-08-25T20:25:42.597Z</time>
      </trkpt>
      <trkpt lat="52.224816" lon="5.509759">
        <ele>1.706512</ele>
        <time>2026-08-25T20:25:46.761Z</time>
      </trkpt>
      <trkpt lat="52.224809" lon="5.509329">
        <ele>1.663944</ele>
        <time>2026-08-25T20:25:51.282Z</time>
      </trkpt>
      <trkpt lat="52.224805" lon="5.509085">
        <ele>1.639789</ele>
        <time>2026-08-25T20:25:53.833Z</time>
      </trkpt>
      <trkpt lat="52.224806" lon="5.508327">
        <ele>1.566250</ele>
        <time>2026-08-25T20:26:01.524Z</time>
      </trkpt>
      <trkpt lat="52.224860" lon="5.507714">
        <ele>1.511823</ele>
        <time>2026-08-25T20:26:07.577Z</time>
      </trkpt>
      <trkpt lat="52.224991" lon="5.507167">
        <ele>1.460208</ele>
        <time>2026-08-25T20:26:13.417Z</time>
      </trkpt>
      <trkpt lat="52.225053" lon="5.506907">
        <ele>1.435688</ele>
        <time>2026-08-25T20:26:16.245Z</time>
      </trkpt>
      <trkpt lat="52.225008" lon="5.506828">
        <ele>1.426207</ele>
        <time>2026-08-25T20:26:17.473Z</time>
      </trkpt>
      <trkpt lat="52.224966" lon="5.506202">
        <ele>1.370863</ele>
        <time>2026-08-25T20:26:24.811Z</time>
      </trkpt>
      <trkpt lat="52.224910" lon="5.505953">
        <ele>1.347552</ele>
        <time>2026-08-25T20:26:27.964Z</time>
      </trkpt>
      <trkpt lat="52.224868" lon="5.505861">
        <ele>1.337468</ele>
        <time>2026-08-25T20:26:29.322Z</time>
      </trkpt>
      <trkpt lat="52.224514" lon="5.505272">
        <ele>1.434965</ele>
        <time>2026-08-25T20:26:39.207Z</time>
      </trkpt>
      <trkpt lat="52.224201" lon="5.504944">
        <ele>1.546755</ele>
        <time>2026-08-25T20:26:46.650Z</time>
      </trkpt>
      <trkpt lat="52.223922" lon="5.504513">
        <ele>1.662205</ele>
        <time>2026-08-25T20:26:54.683Z</time>
      </trkpt>
      <trkpt lat="52.223817" lon="5.504432">
        <ele>1.697110</ele>
        <time>2026-08-25T20:26:57.145Z</time>
      </trkpt>
      <trkpt lat="52.223688" lon="5.504391">
        <ele>1.736610</ele>
        <time>2026-08-25T20:26:59.918Z</time>
      </trkpt>
      <trkpt lat="52.223291" lon="5.504325">
        <ele>1.856549</ele>
        <time>2026-08-25T20:27:08.442Z</time>
      </trkpt>
      <trkpt lat="52.223107" lon="5.504255">
        <ele>1.911915</ele>
        <time>2026-08-25T20:27:12.486Z</time>
      </trkpt>
      <trkpt lat="52.222568" lon="5.504190">
        <ele>2.069999</ele>
        <time>2026-08-25T20:27:24.054Z</time>
      </trkpt>
      <trkpt lat="52.222445" lon="5.503992">
        <ele>2.120526</ele>
        <time>2026-08-25T20:27:27.703Z</time>
      </trkpt>
      <trkpt lat="52.221890" lon="5.503879">
        <ele>2.284119</ele>
        <time>2026-08-25T20:27:39.163Z</time>
      </trkpt>
      <trkpt lat="52.221822" lon="5.503865">
        <ele>2.304166</ele>
        <time>2026-08-25T20:27:40.525Z</time>
      </trkpt>
      <trkpt lat="52.221788" lon="5.503819">
        <ele>2.317082</ele>
        <time>2026-08-25T20:27:41.383Z</time>
      </trkpt>
      <trkpt lat="52.221771" lon="5.503697">
        <ele>2.339501</ele>
        <time>2026-08-25T20:27:42.882Z</time>
      </trkpt>
      <trkpt lat="52.222313" lon="5.502091">
        <ele>2.386573</ele>
        <time>2026-08-25T20:28:01.235Z</time>
      </trkpt>
      <trkpt lat="52.222361" lon="5.501947">
        <ele>2.386573</ele>
        <time>2026-08-25T20:28:02.824Z</time>
      </trkpt>
      <trkpt lat="52.222361" lon="5.501947">
        <ele>2.386573</ele>
        <time>2026-08-25T20:28:02.834Z</time>
      </trkpt>
      <trkpt lat="52.223205" lon="5.502346">
        <ele>2.386573</ele>
        <time>2026-08-25T20:28:21.623Z</time>
      </trkpt>
    </trkseg>
  </trk>
</gpx>